     2              OBSERVATION DATA    GPS                 RINEX VERSION / TYPE
srx/v1.8.1.4 seismo 97/06/23 15:59:48                       PGM / RUN BY / DATE
                                                            COMMENT
sig: 9 8 7 6 5 4 1 0                                        COMMENT
sig: 9 8 7 6 5 4 1 0                                        COMMENT
sig: 9 8 7 6 5 4 1 0                                        COMMENT
Original Marker Name: CALI                                  COMMENT
Campaign Name: Harvey Mudd 1997-1999                        COMMENT
4-Character Station Name: CALI                              COMMENT
6-Character Antenna Code: DMRCHT                            COMMENT
Vertical Measurement Point: BCR                             COMMENT
Vertical Offset to Rinex Ref. Point: 0.0348                 COMMENT
Radial Measurement Point: ECF                               COMMENT
Radial Offset to Rinex Ref. Point: 0.1897                   COMMENT
Antenna Height from Field Measurement: 1.4200 m             COMMENT
Additional Antenna Identification Info.:                    COMMENT
Turborogue and Ashtech Choke Ring                           COMMENT
Original XYZ: -2454971.5856 -4685768.6827 3551641.2261      COMMENT
New XYZ position is based on association with SCEC monument COMMENT
E1D0Q6K9+0011. Position of that monument is believed to be  COMMENT
valid to within 1 m horizontally; vertical accuracy         COMMENT
should be no worse than 3-times this value.                 COMMENT
                                                            COMMENT
Revised Rinex header created by UCSD GPS archive for        COMMENT
GSAC on 09-Nov-2004 (2004:314) 22:03:53 GMT                 COMMENT
For assistance contact dagnew@ucsd.edu                      COMMENT
or anderson@python.ucsd.edu                                 COMMENT
                                                            COMMENT
CALID 1976                                                  MARKER NAME
CALI                                                        MARKER NUMBER
D&M HARVEY MUDD COLLEGE                                     OBSERVER / AGENCY
T263 TURBOROGUE SNR-8000 95.03.08                           REC # / TYPE / VERS
329 DORNE-MARGOL. TYPE T                                    ANT # / TYPE
 -2455009.0000 -4685861.0000  3551697.0000                  APPROX POSITION XYZ
        1.3725        0.0000        0.0000                  ANTENNA: DELTA H/E/N
     1     1     0                                          WAVELENGTH FACT L1/2
     5    L1    L2    P1    P2    C1                        # / TYPES OF OBSERV
    30                                                      INTERVAL
  1997     6    19    15    38   30.000000                  TIME OF FIRST OBS
  1997     6    19    23    41    0.000000                  TIME OF LAST OBS
    19                                                      # OF SATELLITES
          01    21    21     0    21    21                  PRN / # OF OBS
          02   155   155     0   155   155                  PRN / # OF OBS
          03   100   100     0   100   100                  PRN / # OF OBS
          04   474   474     0   474   474                  PRN / # OF OBS
          05   591   591     0   591   591                  PRN / # OF OBS
          06   569   569     0   569   569                  PRN / # OF OBS
          07   285   285     0   285   285                  PRN / # OF OBS
          09   437   437     0   437   437                  PRN / # OF OBS
          10   596   596     0   596   596                  PRN / # OF OBS
          16   156   156     0   156   156                  PRN / # OF OBS
          17   417   417     0   417   417                  PRN / # OF OBS
          21   206   206     0   206   206                  PRN / # OF OBS
          22   238   238     0   238   238                  PRN / # OF OBS
          23   395   395     0   395   395                  PRN / # OF OBS
          24   616   616     0   616   616                  PRN / # OF OBS
          25    24    24     0    24    24                  PRN / # OF OBS
          26   459   459     0   459   459                  PRN / # OF OBS
          27    12    12     0    12    12                  PRN / # OF OBS
                                                            END OF HEADER
 97 06 19 15 38 30.0000000  0  5 02 04 24 26 27
        -0.32758        -0.15556         0.00051  22237780.92256  22237777.26758
        -0.72359         0.54756         0.00051  21257913.31156  21257912.04059
        -0.32758        -0.07755         0.00051  22884623.19155  22884620.09558
        -0.53858         0.21754         0.00051  24270811.24154  24270810.59858
        -1.08158        -0.03454         0.00051  24706274.54654  24706272.44858
 97 06 19 15 39 00.0000000  0  6 02 04 07 24 26 27
     57121.16448     44510.08546         0.00041  22248651.72746  22248648.69748
    -57694.28649    -44955.45546         0.00041  21246935.12646  21246933.51249
        -0.18358         0.74856         0.00051  21061571.08856  21061568.87458
    -94091.74848    -73318.01945         0.00041  22866718.33045  22866714.94248
     79705.33247         0.00041         0.00041         0.00041  24285979.88847
    127237.07448         0.00041         0.00041         0.00041  24730483.88248
 97 06 19 15 39 30.0000000  0  5 02 04 07 24 27
    105743.75448     82397.77746         0.00041  22257903.61446  22257900.90948
   -123646.01849    -96346.39846         0.00041  21234384.72246  21234382.98249
     50495.28848     39347.86246         0.00041  21071180.65446  21071177.81248
   -196723.28848   -153290.62645         0.00041  22847189.06945  22847185.05348
    245818.17547         0.00041         0.00041         0.00041  24753047.10147
 97 06 19 15 40 00.0000000  0  5 02 04 07 24 27
    150926.01348    117604.69045         0.00041  22266501.23545  22266498.02648
   -192783.44149   -150219.69946         0.00041  21221228.25646  21221226.51049
     97534.08748     76001.48046         0.00041  21080131.54846  21080128.45848
   -302819.36348   -235962.85845         0.00041  22826999.51645  22826994.77548
    360806.34248    281148.41941         0.00041         0.00041  24774931.44348
 97 06 19 15 40 30.0000000  0  8 02 04 05 07 09 24 26 27
    196882.70148    153415.05645         0.00041  22275247.22645  22275244.26348
   -260884.64849   -203285.56446         0.00041  21208268.86146  21208266.71949
        -0.49658         0.00051         0.00051         0.00051  24334613.06258
    145328.64848    113243.98546         0.00041  21089226.67546  21089224.00948
         0.05557         0.00051         0.00051         0.00051  21787546.90257
   -408165.73148   -318050.88745         0.00041  22806953.97645  22806947.71448
         0.01757         1.30751         0.00051         0.00051  24325331.82857
    476399.90348    371221.22141         0.00041         0.00041  24796930.96748
 97 06 19 15 41 00.0000000  0  7 02 04 05 07 09 24 27
    243642.77648    189851.44745         0.00041  22284144.39045  22284142.14048
   -327904.00249   -255508.42846         0.00041  21195516.07146  21195513.38349
    -84700.03347         0.00041         0.00041         0.00041  24318492.77447
    193911.98948    151101.13346         0.00041  21098471.97246  21098468.89748
    -60544.25247         0.00041         0.00041         0.00041  21776023.16647
   -512734.80548   -399533.25845         0.00041  22787055.27745  22787048.41248
    592619.21448    461781.55441         0.00041         0.00041  24819045.40848
 97 06 19 15 41 30.0000000  0  7 02 04 05 07 09 24 27
    291147.25848    226867.89545         0.00041  22293183.74245  22293182.04448
   -393924.85949   -306953.24446         0.00041  21182952.76746  21182950.48249
   -168920.07147         0.00041         0.00041         0.00041  24302467.43347
    243205.75748    189511.87246         0.00041  21107852.58646  21107849.64548
   -120124.86347    -93603.40941         0.00041         0.00041  21764684.66447
   -616603.67148   -480470.00845         0.00041  22767289.19245  22767282.51048
    709376.12448         0.00041         0.00041         0.00041  24841263.69148
 97 06 19 15 42 00.0000000  0  7 02 04 05 07 09 24 27
    339361.34048    264437.30045         0.00041  22302358.92145  22302356.29648
   -458995.70349   -357657.78446         0.00041  21170570.57746  21170568.47549
   -252731.55647         0.00041         0.00041         0.00041  24286520.49047
    293140.64048    228422.15446         0.00041  21117354.04246  21117352.18948
   -178797.40448   -139322.32544         0.00041  21753518.15444  21753517.24348
   -719831.11248   -560906.96145         0.00041  22747646.63745  22747639.30348
    826625.32048         0.00041         0.00041         0.00041  24863574.11248
 97 06 19 15 42 30.0000000  0  8 02 04 05 07 09 24 26 27
    388271.12948    302548.82246         0.00041  22311666.94046  22311663.77248
   -523132.36749   -407634.39446         0.00041  21158365.80046  21158363.22049
   -336156.22947         0.00041         0.00041         0.00041  24270642.55747
    343689.28448    267810.70146         0.00041  21126973.32346  21126970.46348
   -236578.86548   -184346.85041         0.00041         0.00041  21742522.45448
   -822436.00248   -640858.84645         0.00041  22728118.93545  22728115.22448
        -0.62758         0.08454         0.00051  24378417.35754  24378413.11358
    944337.22648         0.00041         0.00041         0.00041  24885974.56848
 97 06 19 15 43 00.0000000  0  8 02 04 05 07 09 24 26 27
    437794.20748    341138.21246         0.00041  22321091.12846  22321087.34148
   -586420.52749   -456949.83646         0.00041  21146322.68346  21146319.65049
   -419258.70647         0.00041         0.00041         0.00041  24254831.33047
    394781.60448    307622.90546         0.00041  21136697.41846  21136693.28048
   -293565.08948   -228751.70244         0.00041  21731681.13944  21731678.21848
   -924487.01448   -720379.09945         0.00041  22708697.71045  22708695.80548
     70993.10848     55319.89544         0.00041  24391926.97144  24391923.38348
   1062423.40247         0.00041         0.00041         0.00041  24908445.46547
 97 06 19 15 43 30.0000000  0  7 02 04 05 07 09 24 26
    487960.60948    380228.91346         0.00041  22330637.27046  22330634.19648
   -648848.17849   -505594.75346         0.00041  21134443.26446  21134440.18849
   -502021.81647         0.00041         0.00041         0.00041  24239083.75647
    446435.25148    347872.49046         0.00041  21146525.78446  21146522.25448
   -349753.86148   -272535.21741         0.00041         0.00041  21720986.89148
  -1025972.76548   -799458.86445         0.00041  22689384.72345  22689384.59348
    142405.91348    110966.22044         0.00041  24405518.98844  24405512.31148
 97 06 19 15 44 00.0000000  0  7 02 04 07 09 24 26 27
    538498.83048    419609.32346         0.00041  22340255.76146  22340252.28448
   -710658.40849   -553758.55946         0.00041  21122681.11146  21122678.46449
    498389.96148    388356.66446         0.00041  21156412.40346  21156409.60648
   -405387.53448         0.00041         0.00041         0.00041  21710398.46448
  -1127155.49648   -878302.52246         0.00041  22670132.17446  22670130.56748
    213968.89248    166729.57144         0.00041  24419133.07244  24419130.24448
         0.05157         0.00051         0.00051         0.00051  24953566.95557
 97 06 19 15 44 30.0000000  0  7 02 04 07 09 24 26 27
    589249.82848    459155.54246         0.00041  22349911.95346  22349909.80548
   -772011.05749   -601565.80446         0.00041  21111006.15746  21111003.34149
    550501.28348    428962.85946         0.00041  21166328.17446  21166326.05348
   -460597.72747         0.00041         0.00041         0.00041  21699891.51147
  -1228180.68048   -957023.40446         0.00041  22650908.63846  22650905.10448
    285537.90048    222497.61244         0.00041  24432754.69044  24432751.34148
    118601.88347         0.00041         0.00041         0.00041  24976137.84547
 97 06 19 15 45 00.0000000  0  7 02 04 05 07 09 24 26
    640284.38848    498922.69346         0.00041  22359624.13846  22359621.19348
   -832837.05649   -648962.67046         0.00041  21099430.83746  21099428.06949
        -1.06657         0.00051         0.00051         0.00051  24191879.23357
    602848.75748    469753.07146         0.00041  21176290.71846  21176287.51448
   -515310.13448         0.00041         0.00041         0.00041  21689481.24748
  -1328977.82148  -1035566.58046         0.00041  22631728.02146  22631723.64348
    357202.08048    278339.80344         0.00041  24446391.67344  24446387.56948
 97 06 19 15 45 30.0000000  0  7 02 04 05 07 09 24 26
    691886.19748    539131.84546         0.00041  22369442.85646  22369440.71648
   -892839.90049   -695718.11746         0.00041  21088012.67146  21088010.06949
    -82361.82547         0.00041         0.00041         0.00041  24176205.43847
    655704.05248    510939.00646         0.00041  21186348.82646  21186345.75148
   -569225.75448   -443552.20341         0.00041         0.00041  21679223.39148
  -1429252.77548  -1113702.87746         0.00041  22612646.85146  22612642.12548
    429268.41448    334495.39941         0.00041         0.00041  24460100.86548
 97 06 19 15 46 00.0000000  0  7 02 04 05 07 09 24 26
    744028.83848    579762.45045         0.00041  22379365.46845  22379362.67648
   -952048.63449   -741854.77146         0.00041  21076745.11746  21076742.78749
   -164449.36947         0.00041         0.00041         0.00041  24160582.80947
    709037.16848    552497.26046         0.00041  21196496.89546  21196494.13048
   -622373.47648   -484965.96344         0.00041  21669109.77544  21669108.06048
  -1529007.17548  -1191433.53146         0.00041  22593664.59046  22593658.50448
    501736.66248         0.00041         0.00041         0.00041  24473891.85648
 97 06 19 15 46 30.0000000  0  6 02 04 05 07 09 24
    796576.09248    620708.33345         0.00041  22389364.34645  22389362.10148
  -1010626.06049   -787499.50346         0.00041  21065598.82646  21065596.06049
   -246423.99948         0.00041         0.00041         0.00041  24144984.00548
    762701.66248    594313.72446         0.00041  21206709.55746  21206706.50348
   -674914.16748   -525906.74444         0.00041  21659115.02144  21659109.11148
  -1628374.75148  -1268862.77246         0.00041  22574755.52646  22574749.50748
 97 06 19 15 47 00.0000000  0  6 02 04 05 07 09 24
    849277.78248    661774.56245         0.00041  22399393.91545  22399391.14548
  -1068817.17449   -832843.22346         0.00041  21054525.41346  21054522.72949
   -328558.49448         0.00041         0.00041         0.00041  24129353.70948
    816434.13448    636183.16946         0.00041  21216934.23546  21216931.74548
   -727118.84948   -566585.72644         0.00041  21649180.78244  21649175.18848
  -1727600.74148  -1346181.69946         0.00041  22555873.05346  22555867.87948
 97 06 19 15 47 30.0000000  0  7 02 04 05 07 09 24 26
    902162.98848    702983.80145         0.00041  22409457.77345  22409454.85948
  -1126591.37949   -877862.07546         0.00041  21043531.14446  21043528.69349
   -410823.00148         0.00041         0.00041         0.00041  24113700.94448
    870247.61448    678115.73346         0.00041  21227174.94546  21227172.47448
   -778960.56148   -606981.81844         0.00041  21639314.92344  21639309.82448
  -1826650.21148  -1423363.08346         0.00041  22537024.18046  22537019.23848
        -0.83058         0.00051         0.00051         0.00051  24515396.21558
 97 06 19 15 48 00.0000000  0  7 02 04 05 07 09 24 26
    955298.53648    744388.09545         0.00041  22419567.15645  22419565.85948
  -1183882.22349   -922504.29046         0.00041  21032628.94946  21032626.60349
   -493144.66848         0.00041         0.00041         0.00041  24098034.33548
    924211.87048    720165.78446         0.00041  21237443.97146  21237441.23548
   -830372.16748   -647042.82844         0.00041  21629531.76444  21629527.62048
  -1925463.29748  -1500360.25646         0.00041  22518219.89646  22518216.19148
     72704.42348         0.00041         0.00041         0.00041  24529230.89148
 97 06 19 15 48 30.0000000  0  7 02 04 05 07 09 24 26
   1008681.12848    785984.88445         0.00041  22429725.98445  22429724.23948
  -1240665.35449   -966750.87546         0.00041  21021823.51446  21021821.35949
   -575493.09848         0.00041         0.00041         0.00041  24082363.40748
    978333.15548    762338.20046         0.00041  21247742.97546  21247739.98248
   -881318.73748   -686741.44644         0.00041  21619836.56944  21619834.21148
  -2024038.56348  -1577172.14046         0.00041  22499461.34446  22499457.95048
    145413.76248         0.00041         0.00041         0.00041  24543069.26048
 97 06 19 15 49 00.0000000  0  7 02 04 05 07 09 24 26
   1062108.89048    827616.85245         0.00041  22439895.63645  22439891.28148
  -1297130.81949  -1010749.92146         0.00041  21011077.96846  21011076.23249
   -658063.13348         0.00041         0.00041         0.00041  24066651.85748
   1032411.06048    804476.81546         0.00041  21258032.31746  21258029.99648
   -931979.95748   -726217.70644         0.00041  21610195.56944  21610192.40648
  -2122580.84448  -1653958.32145         0.00041  22480708.81645  22480704.74148
    217926.57548    169813.20444         0.00041  24556870.16844  24556867.29748
 97 06 19 15 49 30.0000000  0  7 02 04 05 07 09 24 26
   1115764.66148    869426.51245         0.00041  22450105.15845  22450102.11248
  -1353102.71149  -1054364.36846         0.00041  21000426.91146  21000425.22049
   -740665.34248   -577140.96541         0.00041         0.00041  24050932.56348
   1086630.75748    846725.92446         0.00041  21268351.08046  21268347.42548
   -982160.33748   -765319.25541         0.00041         0.00041  21600641.40448
  -2220914.70748  -1730582.09746         0.00041  22461997.95746  22461992.36648
    290434.68948    226312.96544         0.00041  24570669.36644  24570666.31248
 97 06 19 15 50 00.0000000  0  7 02 04 05 07 09 24 26
   1169792.86148    911526.41945         0.00041  22460385.81745  22460382.83948
  -1408436.02549  -1097481.21246         0.00041  20989897.05146  20989895.30149
   -823164.97848   -641426.42844         0.00041  24035231.00844  24035233.75548
   1141141.66648    889201.94546         0.00041  21278725.03546  21278721.27648
  -1031711.76348         0.00041         0.00041         0.00041  21591213.23448
  -2318908.07048  -1806940.55046         0.00041  22443349.71446  22443345.85048
    363092.71948    282929.56844         0.00041  24584495.35644  24584492.96948
 97 06 19 15 50 30.0000000  0  7 02 04 05 07 09 24 26
   1224140.32348    953875.06345         0.00041  22470726.64545  22470724.53748
  -1463188.86649  -1140145.73746         0.00041  20979478.62446  20979476.31949
   -905610.70848   -705669.93644         0.00041  24019545.38844  24019544.74048
   1195882.64548    931857.25746         0.00041  21289141.76146  21289138.86748
  -1080690.31648         0.00041         0.00041         0.00041  21581892.95048
  -2416617.68448  -1883077.89946         0.00041  22424755.48846  22424753.13048
    435862.10547    339632.96941         0.00041         0.00041  24598336.09147
 97 06 19 15 51 00.0000000  0  6 02 04 05 07 09 24
   1278789.55448    996458.86745         0.00041  22481128.42045  22481123.92848
  -1517394.06149  -1182383.53646         0.00041  20969163.80946  20969161.29949
   -988032.06848   -769894.32844         0.00041  24003863.85744  24003860.68848
   1250825.63948    974669.98446         0.00041  21299596.88746  21299594.10948
  -1129150.43148         0.00041         0.00041         0.00041  21572670.41248
  -2514074.45748  -1959018.22246         0.00041  22406209.76546  22406207.19048
 97 06 19 15 51 30.0000000  0  6 02 04 05 07 09 24
   1333719.22948   1039261.16745         0.00041  22491579.19945  22491576.69248
  -1571057.29149  -1224199.03746         0.00041  20958952.45846  20958949.56649
  -1070441.49648   -834109.51841         0.00041         0.00041  23988179.25348
   1305951.00048   1017624.81346         0.00041  21310086.14646  21310082.97248
  -1177136.81348         0.00041         0.00041         0.00041  21563539.91848
  -2611288.70148  -2034769.56246         0.00041  22387711.86646  22387707.47448
 97 06 19 15 52 00.0000000  0  5 02 04 07 09 24
   1388887.43848   1082249.31245         0.00041  22502076.49545  22502074.84748
  -1624205.93849  -1265613.56847         0.00041  20948839.07247  20948836.09749
   1361223.25748   1060694.09046         0.00041  21320604.48246  21320601.34148
  -1224699.56448   -954311.11141         0.00041         0.00041  21554490.12448
  -2708280.75048  -2110347.76946         0.00041  22369255.83646  22369249.08848
 97 06 19 15 52 30.0000000  0  6 02 04 07 09 24 26
   1444303.09848   1125430.34945         0.00041  22512623.48445  22512620.84048
  -1676822.89149  -1306613.78547         0.00041  20938826.51947  20938823.43249
   1416651.95348   1103885.27146         0.00041  21331152.47746  21331148.94048
  -1271838.56948   -991042.84244         0.00041  21545518.02744  21545519.37848
  -2805019.82548  -2185728.85346         0.00041  22350846.80846  22350840.39148
         0.09058         0.93551         0.00051         0.00051  24653837.40458
 97 06 19 15 53 00.0000000  0  6 02 04 07 09 24 26
   1499958.72048   1168798.34845         0.00041  22523213.06345  22523212.38148
  -1728912.86549  -1347203.37147         0.00041  20928913.65347  20928910.93949
   1472223.25448   1147187.56245         0.00041  21341727.22245  21341723.55648
  -1318562.57048         0.00041         0.00041         0.00041  21536632.10748
  -2901503.20348  -2260910.68146         0.00041  22332486.32646  22332480.71948
     72940.32548     56837.45944         0.00041  24667720.98844  24667718.33848
 97 06 19 15 53 30.0000000  0  7 02 04 05 07 09 24 26
   1556018.88948   1212481.56845         0.00041  22533881.78445  22533880.19548
  -1780305.86949  -1387249.85447         0.00041  20919133.85247  20919131.62449
         0.06258         0.91551         0.00051         0.00051  23925465.31058
   1528101.69148   1190729.17345         0.00041  21352359.46245  21352358.05948
  -1364679.87648         0.00041         0.00041         0.00041  21527855.55848
  -2997547.36148  -2335750.26446         0.00041  22314208.73646  22314204.95148
    146048.56648    113804.89444         0.00041  24681633.07644  24681630.66348
 97 06 19 15 54 00.0000000  0  7 02 04 05 07 09 24 26
   1612339.47048   1256367.68245         0.00041  22544599.65045  22544596.55948
  -1831160.13249  -1426876.54347         0.00041  20909456.10747  20909453.89149
    -82272.33348    -64107.51244         0.00041  23909813.36444  23909809.57148
   1584137.73748   1234393.61145         0.00041  21363024.66045  21363020.13648
  -1410302.23447         0.00041         0.00041         0.00041  21519174.56547
  -3093299.71148  -2410362.46746         0.00041  22295987.41646  22295983.88148
    219178.59348    170789.30244         0.00041  24695548.77944  24695546.91548
 97 06 19 15 54 30.0000000  0  6 02 04 05 07 24 26
   1668873.09648   1300419.82045         0.00041  22555358.05745  22555354.98348
  -1881530.87049  -1466126.46647         0.00041  20899870.75147  20899868.14949
   -164594.38648   -128254.57044         0.00041  23894147.32144  23894143.11348
   1640275.77948   1278137.56445         0.00041  21373705.57945  21373702.21448
  -3188821.31348  -2484794.85646         0.00041  22277810.11746  22277806.58048
    292286.87748    227756.73844         0.00041  24709463.25944  24709461.09348
 97 06 19 15 55 00.0000000  0  7 02 04 05 07 16 24 26
   1725581.11148   1344607.84345         0.00041  22566148.47545  22566145.41548
  -1931464.88949  -1505036.09046         0.00041  20890368.75446  20890366.10849
   -247018.12448   -192480.85344         0.00041  23878464.98144  23878459.26548
   1696470.72548   1321925.81344         0.00041  21384397.91744  21384396.39048
        -0.66058        19.16756         0.00051  25250893.39256  25250890.64358
  -3284159.03348  -2559083.96146         0.00041  22259668.22746  22259664.95548
    365332.70248    284675.48444         0.00041  24723362.23744  24723359.40848
 97 06 19 15 55 30.0000000  0  7 02 04 05 07 16 24 26
   1782528.85248   1388982.68345         0.00041  22576985.96745  22576982.10848
  -1980892.01949  -1543550.72846         0.00041  20880963.30946  20880960.61649
   -329462.36848   -256723.09944         0.00041  23862771.06544  23862767.54748
   1752805.73248   1365823.19545         0.00041  21395119.74145  21395117.27848
    -49325.52348    -38398.75246         0.00041  25241507.40046  25241504.78248
  -3379253.95148  -2633183.89046         0.00041  22241572.00046  22241568.20148
    438378.91348    341594.56744         0.00041  24737262.98344  24737256.83148
 97 06 19 15 56 00.0000000  0  8 02 04 05 07 09 16 24 26
   1839805.27548   1433613.65045         0.00041  22587886.20345  22587881.77948
  -2029723.35349  -1581601.12046         0.00041  20871670.66646  20871668.02949
   -411846.29348         0.00041         0.00041         0.00041  23847092.16448
   1809375.13748   1409903.23045         0.00041  21405885.28945  21405881.98348
        -0.52757         0.00051         0.00051         0.00051  21485357.52057
    -98330.17348    -76607.36746         0.00041  25232181.60046  25232179.04148
  -3474032.23948  -2707037.07446         0.00041  22223536.59746  22223532.23348
    511513.50648    398582.53744         0.00041  24751180.04344  24751174.40648
 97 06 19 15 56 30.0000000  0  8 02 04 05 07 09 16 24 26
   1897372.70148   1478471.38845         0.00041  22598840.31845  22598837.22948
  -2077985.40749  -1619207.91946         0.00041  20862486.92246  20862483.58449
   -494224.91648   -385109.45741         0.00041         0.00041  23831418.91448
   1866140.13948   1454135.70445         0.00041  21416686.50745  21416684.26048
    -43060.31147         0.00041         0.00041         0.00041  21477164.55447
   -147051.79848   -114583.90445         0.00041  25222909.50645  25222907.37248
  -3568527.74648  -2780669.90846         0.00041  22205555.43146  22205550.61648
    584701.96548    455612.44344         0.00041  24765106.45144  24765102.50448
 97 06 19 15 57 00.0000000  0  8 02 04 05 07 09 16 24 26
   1955166.94748   1523505.86145         0.00041  22609838.87845  22609834.71448
  -2125736.85349  -1656416.84446         0.00041  20853400.06546  20853396.89749
   -576659.73648         0.00041         0.00041         0.00041  23815729.14848
   1923035.78748   1498469.94345         0.00041  21427512.88345  21427509.66848
    -85641.41348    -66734.16541         0.00041         0.00041  21469060.75448
   -195565.76548   -152390.61945         0.00041  25213678.12545  25213675.23748
  -3662800.29648  -2854129.00546         0.00041  22187615.77346  22187611.84948
    657873.21348    512628.94345         0.00041  24779032.96045  24779030.13448
 97 06 19 15 57 30.0000000  0  8 02 04 05 07 09 16 24 26
   2013178.68848   1568709.80045         0.00041  22620879.77145  22620874.09748
  -2172987.22649  -1693235.31147         0.00041  20844408.57647  20844405.96149
   -659143.47648         0.00041         0.00041         0.00041  23800031.92248
   1980055.01348   1542900.50545         0.00041  21438364.32145  21438361.05248
   -127760.37948    -99554.12941         0.00041         0.00041  21461047.17748
   -243859.29648   -190021.59845         0.00041  25204487.82045  25204485.73348
  -3756845.67149  -2927411.08646         0.00041  22169719.54146  22169716.14749
    731031.63148    569635.42744         0.00041  24792952.73844  24792951.98448
 97 06 19 15 58 00.0000000  0  8 02 04 05 07 09 16 24 26
   2071425.72348   1614097.06145         0.00041  22631962.66845  22631958.64948
  -2219727.12549  -1729656.00547         0.00041  20835514.61247  20835511.92249
   -741658.92348   -577915.02844         0.00041  23784333.27444  23784330.16448
   2037190.11248   1587421.33645         0.00041  21449236.74345  21449234.16948
   -169405.03848         0.00041         0.00041         0.00041  21453122.36448
   -291908.34148   -227460.94244         0.00041  25195345.74844  25195342.57748
  -3850628.46049  -3000488.55746         0.00041  22151873.50646  22151869.58549
    804193.17348    626644.35644         0.00041  24806877.07744  24806870.95348
 97 06 19 15 58 30.0000000  0  8 02 04 05 07 09 16 24 26
   2129939.42548   1659692.09445         0.00041  22643095.55045  22643093.21648
  -2265923.50349  -1765653.17247         0.00041  20826723.54247  20826721.17849
   -824164.69248   -642205.15344         0.00041  23768637.56144  23768630.81148
   2094458.25348   1632045.85145         0.00041  21460134.26945  21460131.89248
   -210546.80848         0.00041         0.00041         0.00041  21445293.71248
   -339675.16947   -264679.12544         0.00041  25186254.41344  25186251.98547
  -3944102.46249  -3073325.41646         0.00041  22134085.50446  22134081.87449
    877379.21348    683672.44444         0.00041  24820803.15744  24820798.88648
 97 06 19 15 59 00.0000000  0  8 02 04 05 07 09 16 24 26
   2188723.93748   1705498.15945         0.00041  22654282.23145  22654279.91948
  -2311579.19949  -1801229.02746         0.00041  20818035.33646  20818033.05549
   -906635.44748   -706468.03744         0.00041  23752938.07444  23752937.36948
   2151860.33348   1676774.72045         0.00041  21471056.54345  21471055.79848
   -251186.45747         0.00041         0.00041         0.00041  21437558.57647
   -387140.54247   -301662.53244         0.00041  25177219.26844  25177220.57847
  -4037259.42048  -3145915.23646         0.00041  22116358.03046  22116355.04948
    950584.24048    740715.28244         0.00041  24834732.93744  24834730.72348
 97 06 19 15 59 30.0000000  0  8 02 04 05 07 09 16 24 26
   2247739.24448   1751484.06045         0.00041  22665511.05045  22665508.98248
  -2356724.92949  -1836407.50746         0.00041  20809443.86846  20809441.63849
   -989107.09048   -770731.59444         0.00041  23737246.73744  23737242.64348
   2209346.62548   1721569.23445         0.00041  21481995.35045  21481994.91848
   -291363.85647         0.00041         0.00041         0.00041  21429911.53947
   -434335.22747   -338435.78541         0.00041         0.00041  25168240.31747
  -4130140.67948  -3218290.20446         0.00041  22098681.58246  22098680.50348
   1023757.33248    797733.22744         0.00041  24848656.01244  24848652.93348
 97 06 19 16 00 00.0000000  0  8 02 04 05 07 09 16 24 26
   2306976.81348   1797643.13445         0.00041  22676784.81345  22676781.76048
  -2401345.74949  -1871176.96446         0.00041  20800952.65446  20800950.65349
  -1071611.80048   -835020.94545         0.00041  23721545.16145  23721542.96748
   2266916.23948   1766428.67645         0.00041  21492952.21345  21492949.79548
   -331073.48747         0.00041         0.00041         0.00041  21422354.88247
   -481291.30847         0.00041         0.00041         0.00041  25159303.50347
  -4222760.28748  -3290461.29646         0.00041  22081056.17546  22081054.39648
   1096868.92048    854703.26444         0.00041  24862567.83144  24862566.17148
 97 06 19 16 00 30.0000000  0  8 02 04 05 07 09 16 24 26
   2366432.84948   1843972.43245         0.00041  22688099.63945  22688095.33248
  -2445435.88949  -1905532.90246         0.00041  20792562.41946  20792561.05949
  -1154164.22848   -899347.48445         0.00041  23705837.14945  23705833.82148
   2324572.73248   1811355.80245         0.00041  21503923.83745  21503921.18748
   -370304.38648         0.00041         0.00041         0.00041  21414892.50348
   -528007.24548   -411424.82641         0.00041         0.00041  25150411.99948
  -4315129.71648  -3362437.43646         0.00041  22063480.33046  22063476.34048
   1169902.50248    911612.53041         0.00041         0.00041  24876464.15848
 97 06 19 16 01 00.0000000  0  7 02 04 05 07 09 24 26
   2426150.46748   1890505.59646         0.00041  22699465.57446  22699460.16548
  -2488952.01949  -1939441.55346         0.00041  20784282.19746  20784280.69849
  -1236724.00948   -963679.75945         0.00041  23690126.48745  23690122.71948
   2382365.26548   1856388.92845         0.00041  21514920.92445  21514918.01048
   -409006.20448         0.00041         0.00041         0.00041  21407525.75648
  -4407208.29748  -3434186.95346         0.00041  22045959.41946  22045953.16548
   1242890.75948         0.00041         0.00041         0.00041  24890352.90548
 97 06 19 16 01 30.0000000  0  8 02 04 05 07 09 16 24 26
   2486185.09448   1937285.81646         0.00041  22710889.36346  22710883.94148
  -2531839.65949  -1972860.47846         0.00041  20776121.01246  20776119.08349
  -1319258.31148  -1027992.17445         0.00041  23674422.08445  23674416.66148
   2440349.16448   1901571.17745         0.00041  21525955.89845  21525952.37448
   -447121.72747         0.00041         0.00041         0.00041  21400270.76447
        -0.38358         0.49154         0.00051  25132803.58654  25132799.41858
  -4498937.66548  -3505664.36746         0.00041  22028504.01646  22028497.55548
   1315881.78448         0.00041         0.00041         0.00041  24904242.30048
 97 06 19 16 02 00.0000000  0  8 02 04 05 07 09 16 24 26
   2546536.30348   1984312.70546         0.00041  22722372.70746  22722367.60648
  -2574114.42149  -2005801.83746         0.00041  20768075.80346  20768074.54149
  -1401766.91948  -1092284.55245         0.00041  23658720.21645  23658716.00048
   2498525.87648   1946903.66045         0.00041  21537026.49645  21537021.68448
   -484664.15248         0.00041         0.00041         0.00041  21393128.12948
    -45799.04848    -35686.79944         0.00041  25124088.98144  25124084.54148
  -4590312.48548  -3576865.50846         0.00041  22011115.09446  22011111.93348
   1388875.28648         0.00041         0.00041         0.00041  24918133.21948
 97 06 19 16 02 30.0000000  0  8 02 04 05 07 09 16 24 26
   2607224.71048   2031602.35846         0.00041  22733920.56146  22733915.80948
  -2615759.18449  -2038252.28846         0.00041  20760151.10246  20760150.12849
  -1484202.58748  -1156520.13944         0.00041  23643033.16544  23643029.95548
   2556913.62348   1992400.57745         0.00041  21548138.38145  21548133.06848
   -521630.12748   -406465.62441         0.00041         0.00041  21386096.49048
    -91212.53548    -71073.92544         0.00041  25115450.85044  25115442.41148
  -4681305.11749  -3647768.83346         0.00041  21993799.11846  21993797.36449
   1461894.49748         0.00041         0.00041         0.00041  24932028.40248
 97 06 19 16 03 00.0000000  0  8 02 04 05 07 09 16 24 26
   2668192.47848   2079109.70345         0.00041  22745523.65945  22745519.12548
  -2656825.95549  -2070252.35546         0.00041  20752336.31246  20752335.25849
  -1566612.80548  -1220735.86944         0.00041  23627349.09644  23627347.84948
   2615468.00848   2038027.32945         0.00041  21559280.23845  21559276.26848
   -558092.41348         0.00041         0.00041         0.00041  21379156.01148
   -136286.53448   -106196.48344         0.00041  25106871.71244  25106865.06048
  -4771976.00949  -3718421.43646         0.00041  21976545.31946  21976543.73549
   1534882.84248         0.00041         0.00041         0.00041  24945915.10948
 97 06 19 16 03 30.0000000  0  8 02 04 05 07 09 16 24 26
   2729483.14848   2126868.64445         0.00041  22757187.22645  22757183.40048
  -2697264.57149  -2101762.95646         0.00041  20744641.45846  20744640.16149
  -1648953.18748  -1284897.23344         0.00041  23611680.27044  23611677.28548
   2674225.83848   2083812.61945         0.00041  21570460.96445  21570458.13348
   -593997.49848         0.00041         0.00041         0.00041  21372322.81748
   -180966.58348         0.00041         0.00041         0.00041  25098363.63848
  -4862284.56949  -3788791.70246         0.00041  21959361.16146  21959358.40949
   1607887.45048         0.00041         0.00041         0.00041  24959807.67748
 97 06 19 16 04 00.0000000  0  8 02 04 05 07 09 16 24 26
   2790911.81248   2174735.10946         0.00041  22768877.25946  22768872.43948
  -2737254.69349  -2132924.08547         0.00041  20737031.83447  20737030.38149
  -1731387.89948  -1349132.05444         0.00041  23595995.56044  23595990.26048
   2733012.53748   2129620.45045         0.00041  21581648.45945  21581645.15048
   -629513.31348   -490530.35844         0.00041  21365563.31244  21365566.50348
   -225420.39648         0.00041         0.00041         0.00041  25089903.25648
  -4952419.61849  -3859026.77146         0.00041  21942209.09046  21942205.74749
   1680731.65148         0.00041         0.00041         0.00041  24973670.11748
 97 06 19 16 04 30.0000000  0  8 02 04 05 07 09 16 24 26
   2852515.28448   2222737.77245         0.00041  22780600.27845  22780594.88248
  -2776752.34149  -2163701.47547         0.00041  20729515.75347  20729513.75949
  -1813880.99447  -1413412.36841         0.00041         0.00041  23580293.49247
   2791867.31748   2175481.30744         0.00041  21592849.31544  21592845.00048
   -664586.10848   -517859.84144         0.00041  21358891.72544  21358892.15448
   -269619.13548         0.00041         0.00041         0.00041  25081493.19548
  -5042333.13549  -3929089.22746         0.00041  21925099.14446  21925094.96349
   1753458.63348         0.00041         0.00041         0.00041  24987510.20048
 97 06 19 16 05 00.0000000  0  6 02 04 07 09 24 26
   2914321.65248   2270898.51845         0.00041  22792360.68345  22792356.38148
  -2815749.97749  -2194089.23647         0.00041  20722094.44547  20722092.17949
   2850795.28648   2221399.22944         0.00041  21604059.45244  21604058.83048
   -699172.71548   -544810.44144         0.00041  21352314.34944  21352310.85248
  -5131995.35648  -3998955.86446         0.00041  21908036.14146  21908032.25048
   1826106.30048   1422940.24941         0.00041         0.00041  25001336.00348
 97 06 19 16 05 30.0000000  0  6 02 04 07 09 24 26
   2976309.42048   2319200.63745         0.00041  22804155.33045  22804152.17248
  -2854281.10749  -2224113.48447         0.00041  20714762.25347  20714760.35449
   2909762.05948   2267347.35044         0.00041  21615281.97344  21615278.17648
   -733290.36748   -571395.60644         0.00041  21345826.16444  21345816.98048
  -5221400.55548  -4068622.22246         0.00041  21891022.42946  21891019.17448
   1898666.00648         0.00041         0.00041         0.00041  25015144.31448
 97 06 19 16 06 00.0000000  0  7 02 04 07 09 16 24 26
   3038590.39048   2367731.26845         0.00041  22816006.04345  22816003.17048
  -2892224.67949  -2253679.88847         0.00041  20707541.68147  20707540.02449
   2968895.47348   2313425.30144         0.00041  21626536.30244  21626531.37448
   -766835.91448   -597534.97044         0.00041  21339436.43244  21339431.97348
        -0.33657         0.00051         0.00051         0.00051  25056550.50857
  -5310406.07248  -4137977.13646         0.00041  21874084.99046  21874081.61748
   1971259.36648   1536046.35144         0.00041  25028961.52044  25028956.29848
 97 06 19 16 06 30.0000000  0  7 02 04 07 09 16 24 26
   3101138.55648   2416470.08045         0.00041  22827908.43145  22827906.38648
  -2929587.66449  -2282793.88747         0.00041  20700431.84347  20700430.17049
   3028159.33148   2359604.87744         0.00041  21637813.96044  21637810.63748
   -799838.37448   -623251.15444         0.00041  21333154.97844  21333151.24348
    -43078.78248         0.00041         0.00041         0.00041  25048353.88348
  -5399015.92348  -4207023.75946         0.00041  21857224.23646  21857219.72748
   2043852.45648   1592612.33041         0.00041         0.00041  25042770.99448
 97 06 19 16 07 00.0000000  0  7 02 04 05 07 09 24 26
   3164094.11048   2465526.31945         0.00041  22839888.82145  22839887.28448
  -2966219.52749  -2311338.18547         0.00041  20693461.14947  20693459.30849
        -0.59958         0.00051         0.00051         0.00051  23501777.82158
   3087690.56448   2405992.84444         0.00041  21649140.64044  21649136.35248
   -832166.52048   -648441.92644         0.00041  21327006.98344  21326999.90548
  -5487103.06748  -4275663.08646         0.00041  21840462.02146  21840456.42348
   2116571.76648   1649276.67144         0.00041  25056612.55844  25056610.91748
 97 06 19 16 07 30.0000000  0  7 02 04 05 07 09 24 26
   3227256.12648   2514743.41045         0.00041  22851907.86545  22851906.52648
  -3002296.74249  -2339450.29947         0.00041  20686595.95247  20686593.77449
    -82391.82648         0.00041         0.00041         0.00041  23486099.60848
   3147298.24448   2452440.39944         0.00041  21660482.80044  21660479.60648
   -864029.99848   -673270.58544         0.00041  21320941.23444  21320937.52848
  -5574878.12648  -4344059.23546         0.00041  21823759.33346  21823753.33748
   2189195.44048   1705866.40244         0.00041  25070430.08044  25070431.71348
 97 06 19 16 08 00.0000000  0  7 02 04 05 07 09 24 26
   3290595.58548   2564098.77545         0.00041  22863961.48745  22863959.60148
  -3037834.67649  -2367142.20247         0.00041  20679833.37347  20679830.75449
   -164836.72048   -128443.38641         0.00041         0.00041  23470407.86148
   3206938.74748   2498913.50844         0.00041  21671832.31444  21671829.61648
   -895457.94048   -697759.90444         0.00041  21314961.62644  21314956.39048
  -5662407.87648  -4412264.23446         0.00041  21807103.58446  21807097.30148
   2261667.93647   1762338.38841         0.00041         0.00041  25084222.93947
 97 06 19 16 08 30.0000000  0  6 02 04 05 07 09 24
   3354216.99248   2613673.84045         0.00041  22876067.81245  22876066.36048
  -3072735.80449  -2394337.89247         0.00041  20673191.81547  20673189.37949
   -247257.21848         0.00041         0.00041         0.00041  23454724.68748
   3266689.24648   2545472.31744         0.00041  21683203.04344  21683201.03148
   -926343.97748   -721826.99644         0.00041  21309079.60744  21309080.52348
  -5749619.28348  -4480221.16046         0.00041  21790507.25346  21790501.82348
 97 06 19 16 09 00.0000000  0  7 02 04 05 07 09 16 24
   3418143.56448   2663486.71146         0.00041  22888233.32346  22888230.97948
  -3106999.56449  -2421036.92947         0.00041  20666671.51047  20666669.14149
   -329653.41948         0.00041         0.00041         0.00041  23439046.31948
   3326571.83248   2592134.05245         0.00041  21694600.22745  21694597.17348
   -956670.39448   -745458.00844         0.00041  21303310.91144  21303310.33248
        -0.70757         0.00051         0.00051         0.00051  25008360.15057
  -5836498.97149  -4547919.59546         0.00041  21773973.62446  21773969.58449
 97 06 19 16 09 30.0000000  0  7 02 04 05 07 09 16 24
   3482387.84848   2713547.14446         0.00041  22900458.87246  22900456.25848
  -3140619.96649  -2447234.64347         0.00041  20660273.67647  20660271.44549
   -412007.31748   -321043.78341         0.00041         0.00041  23423373.45948
   3386603.81948   2638912.20745         0.00041  21706022.84145  21706020.33148
   -986404.11948   -768627.21144         0.00041  21297652.38644  21297651.34748
    -41789.36347         0.00041         0.00041         0.00041  25000535.64947
  -5923013.77749  -4615333.68446         0.00041  21757510.16246  21757507.49449
 97 06 19 16 10 00.0000000  0  6 02 04 05 07 09 24
   3546976.78748   2763876.14446         0.00041  22912750.79646  22912747.43648
  -3173588.87249  -2472924.68847         0.00041  20653999.65447  20653997.63349
   -494296.46248   -385165.13744         0.00041  23407716.06744  23407712.41848
   3446817.49848   2685831.93045         0.00041  21717480.75945  21717477.03348
  -1015509.49248   -791306.78044         0.00041  21292112.58444  21292112.23748
  -6009115.44649  -4682425.86146         0.00041  21741124.82746  21741122.75649
 97 06 19 16 10 30.0000000  0  7 02 04 05 07 09 16 24
   3611918.45848   2814479.99546         0.00041  22925108.51846  22925105.17048
  -3205902.68049  -2498104.27247         0.00041  20647850.60947  20647848.48549
   -576491.62748   -449213.28444         0.00041  23392074.73744  23392073.87348
   3507241.66448   2732915.68545         0.00041  21728980.75845  21728976.49748
  -1043970.27048   -813483.98344         0.00041  21286698.93244  21286696.88248
        -1.15058         0.00051         0.00051         0.00051  24985150.22158
  -6094755.40249  -4749158.26146         0.00041  21724828.61346  21724825.67149
 97 06 19 16 11 00.0000000  0  8 02 04 05 07 09 16 24 26
   3677199.48648   2865348.28446         0.00041  22937530.95646  22937527.75548
  -3237586.65449  -2522793.07347         0.00041  20641821.13647  20641819.17249
   -658579.55848   -513177.86344         0.00041  23376455.42544  23376452.60548
   3567875.74448   2780162.99445         0.00041  21740518.41145  21740514.69848
  -1071803.21848   -835172.02345         0.00041  21281402.72645  21281401.08048
    -39822.05148         0.00041         0.00041         0.00041  24977573.80148
  -6179942.94749  -4815538.13346         0.00041  21708617.55146  21708614.30749
        -0.33257         0.00051         0.00051         0.00051  25166836.52457
 97 06 19 16 11 30.0000000  0  8 02 04 05 07 09 16 24 26
   3742737.69348   2916416.94445         0.00041  22950001.89745  22949998.48848
  -3268727.80249  -2547058.89846         0.00041  20635895.64846  20635893.51849
   -740628.13948   -577111.81444         0.00041  23360842.08744  23360838.36748
   3628623.86948   2827499.17345         0.00041  21752076.56045  21752074.26648
  -1099091.70548   -856435.79945         0.00041  21276211.94945  21276208.22348
    -79317.20648         0.00041         0.00041         0.00041  24970057.35648
  -6264775.36549  -4881641.29246         0.00041  21692474.13346  21692470.76749
     72227.17947         0.00041         0.00041         0.00041  25180585.19347
 97 06 19 16 12 00.0000000  0  8 02 04 05 07 09 16 24 26
   3808470.84348   2967637.52845         0.00041  22962512.10245  22962506.86648
  -3299387.12949  -2570949.28146         0.00041  20630061.42346  20630059.37249
   -822688.94048   -641055.27445         0.00041  23345226.90445  23345223.78948
   3689423.90548   2874875.79546         0.00041  21763648.22746  21763643.95048
  -1125912.30548   -877334.97945         0.00041  21271106.55945  21271104.84748
   -118539.91948         0.00041         0.00041         0.00041  24962592.34148
  -6349322.62849  -4947522.24746         0.00041  21676385.92046  21676381.78049
    144298.24147         0.00041         0.00041         0.00041  25194299.43947
 97 06 19 16 12 30.0000000  0  8 02 04 05 07 09 16 24 26
   3874408.79548   3019017.69545         0.00041  22975060.29545  22975053.60248
  -3329541.37649  -2594446.08946         0.00041  20624323.02746  20624321.23849
   -904735.63448   -704987.73745         0.00041  23329613.36745  23329609.72648
   3750284.79448   2922299.83046         0.00041  21775229.78146  21775225.42648
  -1152252.36848   -897859.68745         0.00041  21266095.38445  21266092.17748
   -157454.93448   -122691.58844         0.00041  24955195.25144  24955188.28148
  -6433591.57448  -5013186.34246         0.00041  21660350.49546  21660345.64148
    216243.71548         0.00041         0.00041         0.00041  25207985.12348
 97 06 19 16 13 00.0000000  0  7 02 04 05 07 09 16 24
   3940567.10248   3070569.58845         0.00041  22987648.83245  22987642.77948
  -3359175.55749  -2617537.64846         0.00041  20618683.74546  20618681.77549
   -986778.48948   -768917.18645         0.00041  23314001.25545  23313996.72248
   3811215.69748   2969778.41446         0.00041  21786822.98846  21786820.66248
  -1178098.26548   -917999.30745         0.00041  21261177.08245  21261170.92748
   -196054.14848   -152768.86144         0.00041  24947847.58444  24947840.09248
  -6517585.70448  -5078636.30046         0.00041  21644366.96346  21644362.30848
 97 06 19 16 13 30.0000000  0  7 02 04 05 07 09 16 24
   4006898.82948   3122256.60045         0.00041  23000271.06145  23000265.93348
  -3388321.98649  -2640249.14146         0.00041  20613137.64946  20613135.46849
  -1068872.32848   -832886.39045         0.00041  23298379.58145  23298375.52548
   3872169.16948   3017274.61046         0.00041  21798422.97746  21798419.84148
  -1203489.35848   -937784.51644         0.00041  21256344.56544  21256339.55048
   -234377.31948   -182631.06344         0.00041  24940557.50044  24940549.74848
  -6601326.92949  -5143889.20046         0.00041  21628432.23546  21628427.45049
 97 06 19 16 14 00.0000000  0  8 02 04 05 07 09 16 24 26
   4073462.86948   3174124.64245         0.00041  23012938.32745  23012933.89748
  -3416895.86849  -2662514.50546         0.00041  20607700.63446  20607697.58049
  -1150954.22848   -896846.27545         0.00041  23282760.59145  23282756.62548
   3933216.80448   3064844.16946         0.00041  21810039.22446  21810036.74448
  -1228364.46848   -957167.69645         0.00041  21251610.18245  21251607.66348
   -272350.77248   -212220.75744         0.00041  24933330.75844  24933323.34848
  -6684733.06249  -5208880.98346         0.00041  21612560.22646  21612555.48249
        -0.27558         0.00051         0.00051         0.00051  25248927.92958
 97 06 19 16 14 30.0000000  0  8 02 04 05 07 09 16 24 26
   4140288.79448   3226196.75845         0.00041  23025654.07245  23025650.58748
  -3444862.96449  -2684307.05547         0.00041  20602378.73647  20602375.47249
  -1233013.99848   -960788.90944         0.00041  23267143.86944  23267140.74048
   3994377.35748   3112501.70546         0.00041  21821678.43946  21821676.01848
  -1252690.24748   -976122.84445         0.00041  21246981.57345  21246979.67248
   -309955.13148   -241522.85344         0.00041  24926171.59444  24926168.54948
  -6767773.31749  -5273587.66846         0.00041  21596757.81246  21596754.05549
     71564.17048         0.00041         0.00041         0.00041  25262545.28448
 97 06 19 16 15 00.0000000  0  8 02 04 05 07 09 16 24 26
   4207319.71248   3278428.60245         0.00041  23038409.46645  23038405.74948
  -3472292.44749  -2705680.68547         0.00041  20597159.26547  20597156.28249
  -1315129.13048  -1024774.62744         0.00041  23251516.56044  23251515.14248
   4055579.35548   3160191.56846         0.00041  21833323.99746  21833321.37448
  -1276535.90148   -994703.85145         0.00041  21242444.67745  21242440.58848
   -347271.15648   -270600.26844         0.00041  24919071.77544  24919066.66948
  -6850490.79749  -5338042.83646         0.00041  21581017.19646  21581013.58049
    142974.47648         0.00041         0.00041         0.00041  25276134.86848
 97 06 19 16 15 30.0000000  0  8 02 04 05 07 09 16 24 26
   4274564.91148   3330827.43345         0.00041  23051205.03545  23051201.81948
  -3499168.39949  -2726622.98547         0.00041  20592044.31347  20592041.98149
  -1397279.31948  -1088785.73046         0.00041  23235885.75746  23235882.29248
   4116825.39848   3207915.73346         0.00041  21844978.58046  21844976.29548
  -1299893.30948  -1012904.41144         0.00041  21237996.81244  21237994.69948
   -384275.02648   -299434.38944         0.00041  24912028.17044  24912024.94348
  -6932853.60749  -5402221.63246         0.00041  21565344.38946  21565340.96249
    214237.37648         0.00041         0.00041         0.00041  25289695.72748
 97 06 19 16 16 00.0000000  0  7 02 04 05 07 09 24 26
   4342274.67948   3383588.24545         0.00041  23064090.54945  23064087.05448
  -3525240.80649  -2746939.13947         0.00041  20587082.10947  20587080.60749
  -1479219.71748  -1152642.35245         0.00041  23220293.71245  23220289.51648
   4178370.87248   3255873.21546         0.00041  21856690.33246  21856688.01648
  -1322509.32848  -1030527.31044         0.00041  21233694.09244  21233692.56848
  -7014618.55949  -5465934.55946         0.00041  21549784.38146  21549781.10949
    285598.76848         0.00041         0.00041         0.00041  25303273.49648
 97 06 19 16 16 30.0000000  0  7 02 04 05 07 09 24 26
   4410206.51448   3436522.07645         0.00041  23077018.51045  23077015.33948
  -3550775.61749  -2766836.38146         0.00041  20582223.09346  20582221.81049
  -1561200.29148         0.00041         0.00041         0.00041  23204688.55548
   4239970.13848   3303872.64446         0.00041  21868412.85146  21868409.79848
  -1344624.36148  -1047759.83145         0.00041  21229485.39145  21229484.89548
  -7096026.66949  -5529369.42646         0.00041  21534293.54846  21534290.05849
    356798.95548         0.00041         0.00041         0.00041  25316822.03748
 97 06 19 16 17 00.0000000  0  8 02 04 05 07 09 16 24 26
   4478375.65548   3489640.79245         0.00041  23089990.15745  23089988.16748
  -3575758.55349  -2786303.58646         0.00041  20577468.97346  20577467.39249
  -1643201.36748         0.00041         0.00041         0.00041  23189085.99748
   4301635.35048   3351923.45046         0.00041  21880147.91246  21880144.79248
  -1366224.03048  -1064590.78045         0.00041  21225375.84545  21225373.02448
        -0.55758        -0.22254         0.00051  24891421.62554  24891418.49058
  -7177052.43649  -5592506.36346         0.00041  21518874.39946  21518871.18849
    427859.53948         0.00041         0.00041         0.00041  25330344.69148
 97 06 19 16 17 30.0000000  0  7 02 04 07 09 16 24 26
   4546803.18648   3542960.87045         0.00041  23103010.97245  23103009.24648
  -3600148.77349  -2805308.93646         0.00041  20572827.89946  20572826.03549
   4363394.67848   3400047.59846         0.00041  21891899.88146  21891897.43448
  -1387267.40748  -1080988.18745         0.00041  21221373.75945  21221369.67548
    -35391.54848    -27577.61344         0.00041  24884687.06944  24884682.68748
  -7257679.50349  -5655332.61746         0.00041  21503531.58346  21503528.38049
    498823.62748    388693.84041         0.00041         0.00041  25343849.48548
 97 06 19 16 18 00.0000000  0  7 02 04 07 09 16 24 26
   4615461.83448   3596461.04546         0.00041  23116077.86146  23116074.57348
  -3623976.94849  -2823876.33047         0.00041  20568293.88047  20568291.81849
   4425216.77948   3448220.64546         0.00041  21903664.19246  21903660.47548
  -1407774.29948  -1096967.57245         0.00041  21217470.44845  21217468.45248
    -70452.33948    -54897.66744         0.00041  24878016.61944  24878010.98148
  -7337954.52449  -5717884.55246         0.00041  21488255.86046  21488251.85649
    569642.39548    443877.33741         0.00041         0.00041  25357326.53048
 97 06 19 16 18 30.0000000  0  8 02 04 05 07 09 16 24 26
   4682601.38448   3648777.51246         0.00041  23128854.14846  23128850.26048
  -3648986.17749  -2843364.02847         0.00041  20563534.83247  20563532.63549
        -1.11557         0.00051         0.00051         0.00051  23141953.11257
   4485341.39048   3495070.98445         0.00041  21915105.02545  21915101.95348
  -1429500.31948  -1113896.93344         0.00041  21213334.47044  21213332.53848
   -106955.58048    -83341.67744         0.00041  24871068.62344  24871064.41648
  -7419623.12749  -5781522.42046         0.00041  21472715.57546  21472710.27149
    638548.15447         0.00041         0.00041         0.00041  25370439.10047
 97 06 19 16 19 00.0000000  0  8 02 04 05 07 09 16 24 26
   4749026.42548   3700537.23245         0.00041  23141495.43245  23141489.93148
  -3674350.40549  -2863128.34947         0.00041  20558708.24047  20558705.64749
    -84642.81748    -65954.85944         0.00041  23125853.05844  23125847.26248
   4544567.47448   3541221.16445         0.00041  21926376.20445  21926372.19748
  -1451637.55548  -1131146.74344         0.00041  21209120.85644  21209120.51648
   -144088.99448   -112276.81144         0.00041  24864001.38644  24863998.90448
  -7501893.42149  -5845629.14146         0.00041  21457060.03246  21457054.95149
    706353.88747         0.00041         0.00041         0.00041  25383340.08347
 97 06 19 16 19 30.0000000  0  8 02 04 05 07 09 16 24 26
   4816537.44448   3753143.17645         0.00041  23154342.49145  23154336.07348
  -3698269.87449  -2881766.88947         0.00041  20554156.58047  20554153.89649
   -168399.83048   -131220.08144         0.00041  23109910.51944  23109910.68748
   4604721.73348   3588094.57445         0.00041  21937823.29745  21937820.23448
  -1472372.49648  -1147303.86144         0.00041  21205177.87344  21205174.70248
   -180021.17948   -140275.93144         0.00041  24857163.18344  24857159.16848
  -7582967.61949  -5908803.83546         0.00041  21441631.62946  21441627.86149
    774863.55047         0.00041         0.00041         0.00041  25396378.89147
 97 06 19 16 20 00.0000000  0  7 02 04 05 07 09 16 24
   4885743.09748   3807069.63745         0.00041  23167510.80045  23167506.11148
  -3720148.33649  -2898815.03847         0.00041  20549992.97747  20549990.95249
   -250678.94248   -195333.70344         0.00041  23094253.98244  23094252.23648
   4666413.26748   3636165.88245         0.00041  21949562.82745  21949559.71248
  -1491111.99748  -1161906.09545         0.00041  21201611.72245  21201608.42148
   -214139.08848   -166861.30444         0.00041  24850672.60544  24850665.33948
  -7662223.32949  -5970561.52246         0.00041  21426549.44646  21426546.93149
 97 06 19 16 20 30.0000000  0  7 02 04 05 07 09 16 24
   4955675.29148   3861562.22744         0.00041  23180818.45844  23180814.13948
  -3740966.06949  -2915036.64347         0.00041  20546031.57847  20546029.41749
   -332460.11748   -259059.27744         0.00041  23078696.27044  23078690.92048
   4728672.24848   3684679.33945         0.00041  21961408.31645  21961407.58048
  -1508826.73448  -1175709.79145         0.00041  21198240.31345  21198236.66048
   -247395.81948   -192775.63544         0.00041  24844343.10444  24844337.23548
  -7740627.15149  -6031655.39346         0.00041  21411628.71446  21411626.25449
 97 06 19 16 21 00.0000000  0  7 02 04 05 07 09 16 24
   5026422.01648   3916689.51044         0.00041  23194278.33344  23194275.18348
  -3760651.40049  -2930375.85647         0.00041  20542285.32947  20542283.42549
   -413647.96348   -322322.52244         0.00041  23063246.00244  23063242.31048
   4791593.55548   3733708.87045         0.00041  21973382.62645  21973380.76848
  -1525419.67348  -1188639.38145         0.00041  21195083.89245  21195079.72548
   -279683.78748   -217935.09444         0.00041  24838198.84944  24838193.94848
  -7818101.77949  -6092025.21246         0.00041  21396885.53146  21396883.27049
 97 06 19 16 21 30.0000000  0  7 02 04 05 07 09 16 24
   5097682.77848   3972217.31844         0.00041  23207840.05244  23207836.38648
  -3779509.31149  -2945070.32646         0.00041  20538697.02146  20538694.92949
   -494538.79048   -385354.31844         0.00041  23047847.08544  23047846.90048
   4854876.98248   3783020.57845         0.00041  21985424.64745  21985422.11348
  -1541200.27148  -1200935.97945         0.00041  21192080.17145  21192076.77348
   -311302.64448   -242573.16841         0.00041         0.00041  24832177.53248
  -7894924.01149  -6151886.67046         0.00041  21382267.16546  21382264.87649
 97 06 19 16 22 00.0000000  0  8 02 04 05 07 09 16 24 26
   5169876.55948   4028472.15545         0.00041  23221578.74645  23221575.58948
  -3797123.72149  -2958795.83546         0.00041  20535344.90046  20535343.01649
   -574715.07948   -447829.31744         0.00041  23032597.52944  23032591.42848
   4918909.40048   3832915.93045         0.00041  21997610.99145  21997607.04948
  -1555775.39448  -1212293.22745         0.00041  21189305.22645  21189302.82748
   -341857.72848   -266382.32944         0.00041  24826372.18144  24826363.74248
  -7970675.03349  -6210913.41846         0.00041  21367852.79846  21367849.87349
        -0.12857         0.00051         0.00051         0.00051  25463496.80257
 97 06 19 16 22 30.0000000  0  8 02 04 05 07 09 16 24 26
   5242121.36048   4084766.71445         0.00041  23235326.85245  23235323.82848
  -3814359.91149  -2972226.63246         0.00041  20532064.51246  20532062.65549
   -655036.54848   -510417.47941         0.00041         0.00041  23017307.16748
   4982814.38148   3882711.97945         0.00041  22009771.09345  22009767.89048
  -1570024.07748  -1223396.10145         0.00041  21186596.01945  21186591.73248
   -372231.99348   -290050.53344         0.00041  24820588.07644  24820583.98448
  -8046241.94749  -6269796.70246         0.00041  21353473.37246  21353469.78749
     71010.31448         0.00041         0.00041         0.00041  25477010.43748
 97 06 19 16 23 00.0000000  0  8 02 04 05 07 09 16 24 26
   5314273.36748   4140989.01345         0.00041  23249056.84845  23249054.91748
  -3831339.77249  -2985457.68346         0.00041  20528833.62446  20528831.92749
   -735629.80248   -573217.37344         0.00041  23001971.69644  23001968.61048
   5046452.00048   3932299.71046         0.00041  22021881.39546  22021878.21248
  -1584087.84548  -1234354.91645         0.00041  21183918.80145  21183916.18848
   -402564.60348   -313686.31644         0.00041  24814817.32644  24814811.37148
  -8121746.61349  -6328631.48946         0.00041  21339105.90146  21339100.93349
    141561.18348         0.00041         0.00041         0.00041  25490436.50948
 97 06 19 16 23 30.0000000  0  6 02 04 05 07 09 24
   5386218.04248   4197049.75445         0.00041  23262747.49145  23262744.33548
  -3848163.11949  -2998566.77646         0.00041  20525632.00446  20525630.55249
   -816608.29348   -636317.51241         0.00041         0.00041  22986560.13848
   5109711.23248   3981592.59246         0.00041  22033919.36846  22033916.49648
  -1598076.14548  -1245254.89645         0.00041  21181255.46845  21181254.19548
  -8197285.40749  -6387492.88546         0.00041  21324731.07546  21324726.21449
 97 06 19 16 24 00.0000000  0  7 02 04 05 07 09 16 24
   5458060.39448   4253030.76345         0.00041  23276416.72145  23276414.33848
  -3864730.53449  -3011476.43946         0.00041  20522479.95446  20522478.17649
   -897867.07748   -699636.03241         0.00041         0.00041  22971098.88948
   5172698.75348   4030673.77346         0.00041  22045904.90546  22045902.67648
  -1611866.21148  -1256000.39745         0.00041  21178632.41845  21178629.67948
        -0.97358        -0.56154         0.00051  24803247.73354  24803243.66358
  -8272764.77249  -6446307.95946         0.00041  21310367.49546  21310363.20749
 97 06 19 16 24 30.0000000  0  7 02 04 05 07 09 16 24
   5530496.83748   4309474.69844         0.00041  23290202.61044  23290199.42748
  -3880334.85049  -3023635.63946         0.00041  20519510.71246  20519508.46249
   -978720.68148   -762638.82641         0.00041         0.00041  22955711.25548
   5236122.77448   4080095.08946         0.00041  22057974.66246  22057972.10248
  -1624730.53748  -1266024.55645         0.00041  21176183.94145  21176181.54948
    -29636.15848    -23092.89844         0.00041  24797610.21344  24797604.33048
  -8347472.68049  -6504521.89646         0.00041  21296151.18246  21296147.38349
 97 06 19 16 25 00.0000000  0  7 02 04 05 07 09 16 24
   5603580.25948   4366422.77344         0.00041  23304112.75344  23304106.34348
  -3894946.58049  -3035021.40346         0.00041  20516730.18746  20516727.87749
  -1059130.96447         0.00041         0.00041         0.00041  22940407.95247
   5300027.70448   4129891.14646         0.00041  22070135.67446  22070132.21648
  -1636608.61548  -1275280.22945         0.00041  21173922.92845  21173921.64448
    -58231.42548    -45374.42241         0.00041         0.00041  24792116.38048
  -8421352.43149  -6562090.51846         0.00041  21282091.84446  21282088.33049
 97 06 19 16 25 30.0000000  0  6 02 04 07 09 16 24
   5677337.10948   4423895.54344         0.00041  23318145.96744  23318142.63848
  -3908550.94549  -3045622.20246         0.00041  20514141.55546  20514139.15249
   5364431.99248   4180076.31246         0.00041  22082391.34346  22082387.75848
  -1647488.91448  -1283758.43145         0.00041  21171852.18145  21171851.50248
    -85511.33148         0.00041         0.00041         0.00041  24786784.07248
  -8494399.05349  -6619009.94846         0.00041  21268191.91046  21268188.29449
 97 06 19 16 26 00.0000000  0  4 04 07 09 24
  -3921806.93349  -3055951.54147         0.00041  20511618.97547  20511616.84149
   5428664.46948   4230127.59846         0.00041  22094614.32146  22094611.12048
  -1658040.60448  -1291980.56145         0.00041  21169844.32045  21169843.10948
  -8567273.80049  -6675795.44946         0.00041  21254324.04946  21254320.87749
 97 06 19 16 26 30.0000000  0  6 02 04 07 09 16 24
        -0.24358         1.01255         0.00051  23346259.30655  23346256.08958
  -3934556.93949  -3065886.60947         0.00041  20509192.59747  20509190.64549
   5492884.22448   4280168.94946         0.00041  22106835.27646  22106830.40348
  -1668108.24648  -1299825.48645         0.00041  21167930.71345  21167926.41348
        -0.23358        -0.46854         0.00051  24776243.37854  24776239.00758
  -8639815.95649  -6732321.79346         0.00041  21240519.88446  21240516.76549
 97 06 19 16 27 00.0000000  0  6 02 04 07 09 16 24
     73602.80148     57353.99545         0.00041  23360266.56145  23360262.03548
  -3947341.90849  -3075848.92147         0.00041  20506759.82647  20506757.79349
   5556550.34848   4329778.90846         0.00041  22118949.95346  22118947.09148
  -1678242.20448  -1307722.09246         0.00041  21166002.38946  21165998.75948
    -27759.34848    -21630.92044         0.00041  24770960.45544  24770956.02348
  -8712583.23849  -6789023.55746         0.00041  21226672.48146  21226669.26949
 97 06 19 16 27 30.0000000  0  6 02 04 07 09 16 24
    147353.02448    114821.63445         0.00041  23374301.38545  23374296.83348
  -3959631.91549  -3085425.55347         0.00041  20504420.94247  20504419.05849
   5620178.57548   4379359.33646         0.00041  22131058.49746  22131054.61048
  -1687932.10848  -1315272.68846         0.00041  21164158.51746  21164155.40948
    -55211.15448    -43021.88344         0.00041  24765737.96044  24765730.08148
  -8785065.33549  -6845503.10046         0.00041  21212879.63146  21212876.51249
 97 06 19 16 28 00.0000000  0  5 02 04 07 09 24
    220581.47148    171882.67845         0.00041  23388236.65045  23388232.95648
  -3972092.06249  -3095134.76047         0.00041  20502049.77147  20502048.04049
   5683105.64148   4428393.39946         0.00041  22143032.54246  22143029.39348
  -1697821.31748  -1322978.57446         0.00041  21162276.19946  21162273.63848
  -8857913.51649  -6902267.90946         0.00041  21199016.88046  21199013.61949
 97 06 19 16 28 30.0000000  0  5 02 04 07 09 24
    293119.59348    228405.82745         0.00041  23402039.26845  23402036.41748
  -3984890.81349  -3105107.81247         0.00041  20499614.20347  20499612.42549
   5745164.48448   4476750.94046         0.00041  22154842.59046  22154838.46448
  -1708074.74148  -1330968.27446         0.00041  21160325.74746  21160322.21448
  -8931295.83549  -6959448.93046         0.00041  21185052.41846  21185048.71449
 97 06 19 16 29 00.0000000  0  5 02 04 07 09 24
    366624.09848    285682.01245         0.00041  23416025.44945  23416022.98248
  -3996347.99349  -3114035.47747         0.00041  20497434.01847  20497432.15649
   5808018.57648   4525728.11146         0.00041  22166802.78646  22166799.49548
  -1717035.22948  -1337950.48546         0.00041  21158620.50346  21158616.92948
  -9003541.43849  -7015744.19746         0.00041  21171304.77146  21171300.89949
 97 06 19 16 29 30.0000000  0  5 02 04 07 09 24
    440438.71948    343199.84345         0.00041  23430074.39145  23430069.40148
  -4007142.32549  -3122446.64047         0.00041  20495379.91447  20495378.06049
   5870994.28448   4574800.06446         0.00041  22178786.78446  22178783.62348
  -1725379.16248  -1344452.26546         0.00041  21157032.46746  21157029.26848
  -9075301.78549  -7071661.34346         0.00041  21157649.49346  21157645.14149
 97 06 19 16 30 00.0000000  0  6 02 04 05 07 09 24
    514279.78748    400738.30544         0.00041  23444123.23844  23444121.26948
  -4017564.73249  -3130567.99247         0.00041  20493396.49147  20493394.46449
        -0.42057         0.00051         0.00051         0.00051  22786135.54857
   5933801.86048   4623741.01346         0.00041  22190738.98446  22190735.29048
  -1733393.86448  -1350697.48746         0.00041  21155507.75346  21155504.58448
  -9146848.45649  -7127411.99046         0.00041  21144034.58246  21144031.14049
 97 06 19 16 30 30.0000000  0  6 02 04 05 07 09 24
    587714.53948    457960.16044         0.00041  23458099.47044  23458095.56648
  -4028042.55149  -3138732.52247         0.00041  20491402.79147  20491400.56249
    -82277.39247         0.00041         0.00041         0.00041  22770479.76947
   5996023.54148   4672225.42946         0.00041  22202579.85246  22202576.71648
  -1741524.58148  -1357033.12346         0.00041  21153959.86146  21153956.73548
  -9218603.03849  -7183324.64646         0.00041  21130380.34946  21130376.98849
 97 06 19 16 31 00.0000000  0  5 02 04 07 09 24
    661340.98248    515331.37944         0.00041  23472110.07644  23472105.91148
  -4037968.57049  -3146467.08147         0.00041  20489513.60447  20489511.47049
   6058279.69748   4720736.71346         0.00041  22214426.21246  22214423.64348
  -1749155.50748  -1362979.29846         0.00041  21152507.74646  21152504.52848
  -9289942.88249  -7238914.13046         0.00041  21116804.50846  21116801.04649
 97 06 19 16 31 30.0000000  0  6 02 04 07 09 16 24
    735488.93948    573108.94045         0.00041  23486218.82145  23486215.50048
  -4047030.40549  -3153528.24947         0.00041  20487789.28847  20487787.43049
   6120901.31448   4769532.78346         0.00041  22226342.65046  22226339.64648
  -1755958.76348  -1368280.54046         0.00041  21151213.40146  21151209.39748
        -0.58358        -0.17654         0.00051  24724801.02854  24724795.16258
  -9360530.54349  -7293917.49746         0.00041  21103372.42746  21103368.65549
 97 06 19 16 32 00.0000000  0  6 02 04 07 09 16 24
    809774.31448    630993.58045         0.00041  23500354.33945  23500351.27148
  -4055592.75049  -3160200.20447         0.00041  20486160.15847  20486158.28649
   6183518.98248   4818325.76746         0.00041  22238259.07046  22238255.55148
  -1762305.92248  -1373226.37046         0.00041  21150006.12646  21150002.19248
    -25400.79448         0.00041         0.00041         0.00041  24719960.24848
  -9430753.98549  -7348637.05346         0.00041  21090008.78546  21090005.03949
 97 06 19 16 32 30.0000000  0  6 02 04 07 09 16 24
    884166.61348    688961.53544         0.00041  23514512.34344  23514507.57348
  -4063685.88449  -3166506.54147         0.00041  20484620.00147  20484618.09449
   6246095.29748   4867086.49546         0.00041  22250167.05646  22250163.85248
  -1768230.08648  -1377842.59546         0.00041  21148878.33146  21148875.08948
    -50517.88648    -39364.36141         0.00041         0.00041  24715182.51348
  -9500657.49649  -7403107.30146         0.00041  21076706.39446  21076703.03649
 97 06 19 16 33 00.0000000  0  6 02 04 07 09 16 24
    958707.53948    747045.32044         0.00041  23528696.25044  23528693.41648
  -4071277.60549  -3172422.16647         0.00041  20483175.50147  20483173.47049
   6308650.70248   4915830.92746         0.00041  22262070.39346  22262067.44248
  -1773684.18149  -1382092.55246         0.00041  21147839.68346  21147837.27749
    -75313.95548    -58685.95344         0.00041  24710468.96244  24710464.83548
  -9570216.42149  -7457309.03646         0.00041  21063469.92646  21063466.53549
 97 06 19 16 33 30.0000000  0  6 02 04 07 09 16 24
   1034241.81048         0.00041         0.00041         0.00041  23543066.10048
  -4077541.19349  -3177302.88147         0.00041  20481983.51447  20481981.83749
   6371991.19448   4965187.08846         0.00041  22274123.27946  22274120.31248
  -1777839.51449  -1385330.51046         0.00041  21147048.16346  21147047.36149
    -98934.83348    -77091.79044         0.00041  24705973.82344  24705970.23048
  -9638618.99549  -7510609.70446         0.00041  21050453.76446  21050450.59949
 97 06 19 16 34 00.0000000  0  6 02 04 07 09 16 24
   1111178.04948    865853.29641         0.00041         0.00041  23557705.94548
  -4082071.22349  -3180832.76647         0.00041  20481121.37047  20481119.69049
   6436517.26848   5015467.10745         0.00041  22286401.78545  22286399.45848
  -1780276.22749  -1387229.28446         0.00041  21146584.63246  21146583.49649
   -120961.12648    -94255.11044         0.00041  24701786.61444  24701778.17448
  -9705470.01749  -7562701.37446         0.00041  21037732.60546  21037729.42749
 97 06 19 16 34 30.0000000  0  6 02 04 07 09 16 24
   1188484.65248    926092.04544         0.00041  23572424.91744  23572417.57048
  -4085909.93849  -3183823.95647         0.00041  20480390.82647  20480388.69149
   6501191.30648   5065862.42545         0.00041  22298709.49945  22298706.47848
  -1782020.60749  -1388588.55446         0.00041  21146252.59346  21146250.85249
   -142441.35848   -110992.94044         0.00041  24697693.03344  24697691.20548
  -9771779.00449  -7614370.68746         0.00041  21025113.97346  21025110.73749
 97 06 19 16 35 00.0000000  0  6 02 04 07 09 16 24
   1266829.07648    987139.57444         0.00041  23587337.80844  23587326.63948
  -4088390.57649  -3185756.91147         0.00041  20479918.62247  20479916.10849
   6566685.40348   5116896.76846         0.00041  22311173.11046  22311169.51448
  -1782402.17049  -1388885.88146         0.00041  21146179.99646  21146177.94349
   -162693.94348   -126774.12044         0.00041  24693837.44744  24693837.51048
  -9836860.39849  -7665083.43746         0.00041  21012729.24646  21012725.83449
 97 06 19 16 35 30.0000000  0  6 02 04 07 09 16 24
   1345948.27248   1048790.81844         0.00041  23602387.76744  23602383.11248
  -4089762.76049  -3186826.14647         0.00041  20479657.74447  20479655.36349
   6632750.40648   5168375.98146         0.00041  22323745.12946  22323741.34548
  -1781680.74449  -1388323.72546         0.00041  21146318.44946  21146315.22649
   -181970.38648   -141794.67444         0.00041  24690168.23144  24690168.15048
  -9900953.66149  -7715026.22246         0.00041  21000532.79546  21000528.99449
 97 06 19 16 36 00.0000000  0  5 02 04 07 09 24
   1425555.02448   1110822.01344         0.00041  23617535.45344  23617532.50248
  -4090289.36349  -3187236.48547         0.00041  20479557.41847  20479555.42949
   6699134.70548   5220103.99846         0.00041  22336377.29246  22336372.91348
  -1780134.93949  -1387119.21446         0.00041  21146612.30846  21146609.45749
  -9964309.03849  -7764394.04646         0.00041  20988476.89446  20988472.87449
 97 06 19 16 36 30.0000000  0  6 02 04 07 09 16 24
   1505738.33348   1173302.51644         0.00041  23632793.86844  23632789.53448
  -4089863.21149  -3186904.41447         0.00041  20479638.58047  20479636.43849
   6765934.63348   5272155.87646         0.00041  22349088.74946  22349085.05248
  -1777676.04349  -1385203.20646         0.00041  21147080.01446  21147078.00349
        -0.96658         0.00051         0.00051         0.00051  24683243.66058
 -10026827.83149  -7813109.98746         0.00041  20976579.88246  20976575.84049
 97 06 19 16 37 00.0000000  0  6 02 04 07 09 16 24
   1586090.26348   1235914.35044         0.00041  23648085.28744  23648081.08648
  -4088895.35549  -3186150.24247         0.00041  20479822.65947  20479820.51049
   6832734.23848   5324207.48846         0.00041  22361800.67146  22361795.80248
  -1774721.04649  -1382900.63246         0.00041  21147642.50446  21147640.65449
    -17414.07648         0.00041         0.00041         0.00041  24679928.46548
 -10088946.95149  -7861514.49146         0.00041  20964758.70246  20964754.85449
 97 06 19 16 37 30.0000000  0  5 02 04 07 09 24
   1666114.05548   1298270.46444         0.00041  23663311.33044  23663308.94648
  -4087883.96249  -3185362.14447         0.00041  20480015.14047  20480012.74249
   6899033.41048   5375869.15046         0.00041  22374416.64646  22374413.39148
  -1771778.15449  -1380607.48046         0.00041  21148202.78646  21148199.95649
 -10151174.85249  -7910003.75046         0.00041  20952916.50146  20952913.15949
 97 06 19 16 38 00.0000000  0  6 02 04 07 09 16 24
   1745785.15048   1360351.77344         0.00041  23678472.08544  23678468.33248
  -4086867.81149  -3184570.33647         0.00041  20480208.54347  20480206.26849
   6964798.32348   5427114.52846         0.00041  22386931.78246  22386928.58648
  -1768886.26149  -1378354.06946         0.00041  21148753.49246  21148750.52649
        -0.64658         0.00051         0.00051         0.00051  24673233.67258
 -10213559.67549  -7958615.28346         0.00041  20941045.60046  20941041.79549
 97 06 19 16 38 30.0000000  0  6 02 04 07 09 16 24
   1825390.05848   1422381.48044         0.00041  23693623.46344  23693617.19848
  -4085575.74949  -3183563.53147         0.00041  20480454.45347  20480452.49549
   7030283.63148   5478142.02946         0.00041  22399393.66246  22399390.27048
  -1765765.33149  -1375922.18446         0.00041  21149347.30946  21149344.96649
    -17530.77448         0.00041         0.00041         0.00041  24669897.95848
 -10275836.24049  -8007142.46346         0.00041  20929195.02446  20929190.67449
 97 06 19 16 39 00.0000000  0  6 02 04 07 09 16 24
   1905181.33348   1484556.42644         0.00041  23708806.09444  23708801.59848
  -4083755.96549  -3182145.50947         0.00041  20480800.82847  20480799.02949
   7095741.36148   5529148.04446         0.00041  22411849.49346  22411846.22448
  -1762170.34849  -1373120.90746         0.00041  21150031.12946  21150028.53349
    -34667.50548         0.00041         0.00041         0.00041  24666636.57548
 -10337736.28249  -8055376.24846         0.00041  20917415.87246  20917411.68149
 97 06 19 16 39 30.0000000  0  6 02 04 07 09 16 24
   1984552.41948   1546403.96744         0.00041  23723910.41344  23723905.76748
  -4082001.04449  -3180778.03347         0.00041  20481134.91247  20481133.22749
   7160579.21848   5579671.01645         0.00041  22424187.57345  22424183.39348
  -1758699.49149  -1370416.35046         0.00041  21150690.95146  21150688.57649
    -52005.01748         0.00041         0.00041         0.00041  24663337.73448
 -10399836.09149  -8103765.70246         0.00041  20905598.71046  20905594.43649
 97 06 19 16 40 00.0000000  0  6 02 04 07 09 16 24
   2060907.57448   1605901.37944         0.00041  23738441.84744  23738433.65648
  -4082900.77149  -3181479.11647         0.00041  20480963.85347  20480962.18749
   7222207.17748   5627692.78245         0.00041  22435914.96545  22435911.36248
  -1757925.05049  -1369812.91846         0.00041  21150838.49446  21150835.77849
    -72152.88748    -56222.81641         0.00041         0.00041  24659504.47048
 -10464717.62449  -8154322.72846         0.00041  20893252.17046  20893248.54049
 97 06 19 16 40 30.0000000  0  5 02 04 07 09 24
   2135716.58948   1664193.99945         0.00041  23752676.82445  23752671.10248
  -4084979.98549  -3183099.28647         0.00041  20480568.08547  20480566.24249
   7282094.44748   5674358.15445         0.00041  22447310.89845  22447307.51948
  -1758362.95349  -1370154.17346         0.00041  21150754.97346  21150752.47849
 -10530889.48149  -8205885.19947         0.00041  20880659.97047  20880656.75049
 97 06 19 16 41 00.0000000  0  6 02 04 07 09 16 24
   2209728.15648   1721865.25645         0.00041  23766761.18145  23766755.57548
  -4087491.33749  -3185056.18747         0.00041  20480090.15847  20480088.05349
   7341021.93648   5720275.65145         0.00041  22458523.92845  22458520.69948
  -1759259.51449  -1370852.81446         0.00041  21150584.25946  21150582.02349
        -0.63258        -0.53254         0.00051  24651207.58654  24651203.61558
 -10597586.26049  -8257856.69547         0.00041  20867968.35047  20867964.79249
 97 06 19 16 41 30.0000000  0  6 02 04 07 09 16 24
   2282732.90248   1778751.99145         0.00041  23780654.60645  23780648.15648
  -4090653.91549  -3187520.53247         0.00041  20479488.24447  20479486.14049
   7398775.32448   5765278.28045         0.00041  22469515.91245  22469510.39848
  -1760817.44049  -1372066.80246         0.00041  21150288.43346  21150285.55549
    -22920.87348    -17860.45144         0.00041  24646846.24944  24646842.92748
 -10665026.61149  -8310407.60247         0.00041  20855134.66547  20855131.16749
 97 06 19 16 42 00.0000000  0  5 04 07 09 16 24
  -4093526.88149  -3189759.20447         0.00041  20478941.67747  20478939.49549
   7456295.21548   5810098.92244         0.00041  22480461.16444  22480455.91948
  -1762081.20649  -1373051.57546         0.00041  21150047.92446  21150045.47349
    -45695.51948    -35606.90545         0.00041  24642515.45345  24642509.97548
 -10732272.69849  -8362807.14147         0.00041  20842338.04847  20842334.66849
 97 06 19 16 42 30.0000000  0  5 04 07 09 16 24
  -4095664.45449  -3191424.84047         0.00041  20478534.83447  20478533.00849
   7514038.96048   5855094.03044         0.00041  22491447.96044  22491445.20948
  -1762602.54349  -1373457.82246         0.00041  21149948.84746  21149945.85549
    -67844.13248    -52865.57244         0.00041  24638299.66644  24638293.54948
 -10798887.97449  -8414715.13847         0.00041  20829661.60547  20829658.45149
 97 06 19 16 43 00.0000000  0  6 02 04 07 09 16 24
        -0.10558        -0.02754         0.00051  23822633.72454  23822632.18458
  -4096464.12949  -3192047.95747         0.00041  20478382.79547  20478380.94549
   7572606.70148   5900731.18444         0.00041  22502593.19444  22502590.87548
  -1761795.71949  -1372829.14646         0.00041  21150102.15246  21150099.38549
    -88743.56348    -69150.82244         0.00041  24634321.46044  24634315.53148
 -10864284.53449  -8465673.48347         0.00041  20817216.98647  20817213.60449
 97 06 19 16 43 30.0000000  0  6 02 04 07 09 16 24
     75197.50848     58595.41444         0.00041  23836944.69544  23836941.62548
  -4096044.46049  -3191720.93947         0.00041  20478462.27547  20478460.86549
   7631852.64648   5946896.84544         0.00041  22513864.09844  22513864.53248
  -1759790.93449  -1371266.98546         0.00041  21150483.71846  21150481.35849
   -108499.98248    -84545.41144         0.00041  24630561.70944  24630556.85748
 -10928597.53649  -8515787.50147         0.00041  20804978.55147  20804975.13449
 97 06 19 16 44 00.0000000  0  6 02 04 07 09 16 24
    150744.18448    117462.84144         0.00041  23851321.20944  23851317.88948
  -4094916.02449  -3190841.64147         0.00041  20478677.09847  20478675.52649
   7691263.30848   5993190.85944         0.00041  22525171.55344  22525171.03448
  -1757114.82049  -1369181.71046         0.00041  21150993.27346  21150990.89549
   -127638.44748    -99458.28544         0.00041  24626917.29944  24626915.10648
 -10992351.31449  -8565465.76346         0.00041  20792846.49646  20792842.61949
 97 06 19 16 44 30.0000000  0  7 02 04 05 07 09 16 24
    226857.95048    176772.13444         0.00041  23865806.68044  23865800.80248
  -4092860.17749  -3189239.68147         0.00041  20479068.62347  20479066.54149
        -0.68858         0.00051         0.00051         0.00051  22335593.69558
   7751052.20648   6039779.59844         0.00041  22536551.60244  22536547.28848
  -1753579.61749  -1366427.02546         0.00041  21151665.89646  21151663.43349
   -145962.72347   -113737.11641         0.00041         0.00041  24623438.49247
 -11055327.30649  -8614537.95746         0.00041  20780863.16146  20780859.22949
 97 06 19 16 45 00.0000000  0  7 02 04 05 07 09 16 24
    303179.36248    236243.30244         0.00041  23880330.62844  23880323.55948
  -4090233.30649  -3187192.76747         0.00041  20479568.10347  20479566.05249
    -84001.11247         0.00041         0.00041         0.00041  22319603.45647
   7810847.56748   6086373.32744         0.00041  22547928.74744  22547924.17248
  -1749561.03549  -1363295.67846         0.00041  21152431.17646  21152428.33449
   -164528.49847         0.00041         0.00041         0.00041  24620018.57847
 -11117865.72549  -8663269.18647         0.00041  20768961.91647  20768958.65849
 97 06 19 16 45 30.0000000  0  6 02 04 05 07 09 24
    379860.05748         0.00041         0.00041         0.00041  23894914.77048
  -4086914.84649  -3184606.94847         0.00041  20480199.60247  20480197.61049
   -167786.72848         0.00041         0.00041         0.00041  22303665.51448
   7870787.62148   6133079.83644         0.00041  22559335.37044  22559331.22148
  -1744915.23249  -1359675.59146         0.00041  21153315.40346  21153312.55149
 -11179827.37849  -8711550.98447         0.00041  20757171.32847  20757168.15849
 97 06 19 16 46 00.0000000  0  6 02 04 05 07 09 24
    456697.08048    355867.26241         0.00041         0.00041  23909537.41248
  -4083113.47149  -3181644.83647         0.00041  20480923.56847  20480921.26549
   -251544.05248         0.00041         0.00041         0.00041  22287727.54548
   7930678.87248   6179748.31344         0.00041  22570732.09444  22570729.47648
  -1739833.80249  -1355716.04546         0.00041  21154282.09146  21154279.45749
 -11241403.85849  -8759532.65447         0.00041  20745453.76347  20745450.72549
 97 06 19 16 46 30.0000000  0  5 02 04 07 09 24
    535585.99048         0.00041         0.00041         0.00041  23924550.03648
  -4076941.58349  -3176835.57347         0.00041  20482097.92947  20482095.46649
   7992421.34148   6227859.31945         0.00041  22582482.07745  22582478.12548
  -1732394.61349  -1349919.28246         0.00041  21155697.28746  21155694.89549
 -11300671.50049  -8805715.22847         0.00041  20734175.38947  20734172.21949
 97 06 19 16 47 00.0000000  0  6 02 04 07 09 16 24
    620975.51348         0.00041         0.00041         0.00041  23940799.03548
  -4063950.13049  -3166712.36747         0.00041  20484570.36547  20484567.54549
   8060466.34448   6280881.38945         0.00041  22595429.86145  22595426.94648
  -1718106.43349  -1338785.65246         0.00041  21158416.65346  21158414.37849
        -0.42358        -0.19055         0.00051  24609135.30255  24609130.25258
 -11353171.27449  -8846624.13547         0.00041  20724185.15447  20724182.02449
 97 06 19 16 47 30.0000000  0  6 02 04 07 09 16 24
    709452.58247         0.00041         0.00041         0.00041  23957635.39247
  -4047532.62149  -3153919.51047         0.00041  20487694.95947  20487691.94849
   8131420.42148   6336170.24545         0.00041  22608932.91945  22608928.22048
  -1700353.01249  -1324951.84046         0.00041  21161794.77346  21161792.13349
     -4741.31048     -3694.34745         0.00041  24608231.53045  24608228.72448
 -11402297.85449  -8884904.57246         0.00041  20714836.91546  20714833.27949
 97 06 19 16 48 00.0000000  0  6 02 04 07 09 16 24
    808201.47847         0.00041         0.00041         0.00041  23976425.22647
  -4020454.51949  -3132819.69747         0.00041  20492847.13147  20492844.56849
   8212484.54348   6399337.05845         0.00041  22624358.39545  22624353.91148
  -1671930.31149  -1302804.29746         0.00041  21167203.04446  21167199.91149
      1090.61048       849.98645         0.00041  24609341.58445  24609338.49648
 -11440830.91449  -8914930.32046         0.00041  20707503.92946  20707500.23249
 97 06 19 16 48 30.0000000  0  6 02 04 07 09 16 24
    910425.08148         0.00041         0.00041         0.00041  23995880.14448
  -3989510.03049  -3108707.11447         0.00041  20498735.47647  20498732.91349
   8296848.62848   6465075.30746         0.00041  22640412.86446  22640409.07448
  -1639648.78649  -1277649.86546         0.00041  21173346.38046  21173343.17449
     10710.10048      8345.70844         0.00041  24611170.54544  24611169.94548
 -11475572.64549  -8942001.79346         0.00041  20700892.89746  20700888.95049
 97 06 19 16 49 00.0000000  0  6 02 04 07 09 16 24
   1008025.47048         0.00041         0.00041         0.00041  24014451.50848
  -3962783.89749  -3087881.56247         0.00041  20503820.82047  20503818.73349
   8376422.48948   6527080.89646         0.00041  22655555.59446  22655551.95448
  -1611631.73349  -1255818.38646         0.00041  21178678.17346  21178675.15949
     16016.73748     12480.78444         0.00041  24612185.28644  24612178.85448
 -11514623.72449  -8972431.20946         0.00041  20693461.83246  20693457.87449
 97 06 19 16 49 30.0000000  0  6 02 04 07 09 16 24
   1101885.13748         0.00041         0.00041         0.00041  24032312.30448
  -3939390.94349  -3069653.28547         0.00041  20508272.33047  20508270.58449
   8452103.65148   6586053.23146         0.00041  22669956.61346  22669954.41448
  -1587016.92149  -1236638.02346         0.00041  21183362.65346  21183359.91149
     17890.74748     13941.01044         0.00041  24612534.78544  24612534.95948
 -11557095.87349  -9005526.38646         0.00041  20685379.33446  20685375.42149
 97 06 19 16 50 00.0000000  0  6 02 04 07 09 16 24
   1193317.21847         0.00041         0.00041         0.00041  24049710.99147
  -3918043.54049  -3053018.93747         0.00041  20512334.87947  20512333.13249
   8525188.47148   6643002.42746         0.00041  22683865.05046  22683861.91348
  -1564502.83449  -1219094.60546         0.00041  21187646.97346  21187644.52249
     17619.35348         0.00041         0.00041         0.00041  24612482.83148
 -11601697.95649  -9040281.24546         0.00041  20676891.25446  20676888.03049
 97 06 19 16 50 30.0000000  0  6 02 04 07 09 16 24
   1282919.90148         0.00041         0.00041         0.00041  24066763.98248
  -3898180.46649  -3037541.20447         0.00041  20516114.79647  20516112.90349
   8596274.02248   6698393.70546         0.00041  22697391.97646  22697388.26948
  -1543495.77849  -1202725.49546         0.00041  21191644.73146  21191641.55049
     15772.24448         0.00041         0.00041         0.00041  24612130.87548
 -11647852.03549  -9076245.44546         0.00041  20668108.45346  20668105.44249
 97 06 19 16 51 00.0000000  0  6 02 04 07 09 16 24
   1371209.88648   1068473.83041         0.00041         0.00041  24083566.21848
  -3879293.10949  -3022823.77647         0.00041  20519708.75147  20519706.84949
   8665888.72448   6752638.89245         0.00041  22710638.33845  22710635.11548
  -1523477.79049  -1187127.08246         0.00041  21195452.90346  21195450.05049
     12853.36248     10015.80641         0.00041         0.00041  24611577.43048
 -11695051.05049  -9113023.87446         0.00041  20659126.67646  20659123.51049
 97 06 19 16 51 30.0000000  0  6 02 04 07 09 16 24
   1458731.32848         0.00041         0.00041         0.00041  24100219.28648
  -3860844.65649  -3008448.36047         0.00041  20523219.58547  20523217.44849
   8734554.29648   6806144.48345         0.00041  22723705.15845  22723702.44348
  -1503907.39148  -1171877.43446         0.00041  21199176.89146  21199173.79048
      9387.70748      7315.29944         0.00041  24610925.23544  24610918.11748
 -11742776.68049  -9150212.65246         0.00041  20650044.82146  20650041.32449
 97 06 19 16 52 00.0000000  0  7 02 04 07 09 16 24 30
   1545800.88348         0.00041         0.00041         0.00041  24116788.62348
  -3842533.47649  -2994179.91547         0.00041  20526704.22447  20526701.91149
   8802571.36948   6859144.75445         0.00041  22736647.97245  22736644.84248
  -1484482.40248  -1156741.08646         0.00041  21202872.86046  21202869.63148
      5680.86548      4426.86844         0.00041  24610214.70844  24610211.21748
 -11790730.36849  -9187579.14446         0.00041  20640919.70946  20640916.15949
        -0.50458         0.00051         0.00051         0.00051  25096468.81358
 97 06 19 16 52 30.0000000  0  7 02 04 07 09 16 24 30
   1632596.55547         0.00041         0.00041         0.00041  24133302.47547
  -3824181.85349  -2979879.96047         0.00041  20530196.46647  20530194.14049
   8870116.69248   6911777.41945         0.00041  22749501.44045  22749498.23748
  -1465044.53148  -1141594.70446         0.00041  21206572.68846  21206569.32148
      1919.09748      1495.66344         0.00041  24609498.90044  24609495.31948
 -11838744.15749  -9224992.47747         0.00041  20631783.18547  20631779.50649
    -95852.84048         0.00041         0.00041         0.00041  25078229.10848
 97 06 19 16 53 00.0000000  0  7 02 04 07 09 16 24 30
   1719300.03347         0.00041         0.00041         0.00041  24149803.18547
  -3805603.14549  -2965403.05547         0.00041  20533731.82747  20533729.51049
   8937353.11748   6964169.40245         0.00041  22762296.63245  22762292.66848
  -1445428.16448  -1126309.23846         0.00041  21210305.87346  21210302.60048
     -1704.78948     -1328.12144         0.00041  24608810.06844  24608805.21348
 -11886632.04149  -9262307.70347         0.00041  20622670.69547  20622666.73949
   -192086.92848         0.00041         0.00041         0.00041  25059915.31448
 97 06 19 16 53 30.0000000  0  6 04 07 09 16 24 30
  -3786693.33349  -2950668.14647         0.00041  20537330.57247  20537327.84549
   9004367.99048   7016388.76745         0.00041  22775050.14445  22775045.34048
  -1425528.60248  -1110803.08646         0.00041  21214092.89846  21214089.22548
     -5072.57248         0.00041         0.00041         0.00041  24608161.80848
 -11934271.68949  -9299429.50047         0.00041  20613604.68347  20613601.17249
   -288590.65048         0.00041         0.00041         0.00041  25041549.56548
 97 06 19 16 54 00.0000000  0  6 04 07 09 16 24 30
  -3767351.80149  -2935596.82746         0.00041  20541011.05546  20541008.32949
   9071278.58548   7068526.87445         0.00041  22787783.75545  22787777.78448
  -1405221.06349  -1094979.03146         0.00041  21217957.80346  21217954.15249
     -8067.18848     -6285.77841         0.00041         0.00041  24607592.70348
 -11981527.33749  -9336252.07147         0.00041  20604612.32947  20604609.08049
   -385238.53948         0.00041         0.00041         0.00041  25023156.11248
 97 06 19 16 54 30.0000000  0  6 04 05 07 09 24 30
  -3747525.86349  -2920148.05346         0.00041  20544783.45146  20544781.06749
        -0.87057         0.33151         0.00051         0.00051  22055220.86857
   9138114.75048   7120606.98544         0.00041  22800499.39944  22800496.35348
  -1384449.02349  -1078793.03746         0.00041  21221909.67546  21221906.54449
 -12028341.63149  -9372730.72547         0.00041  20595703.67047  20595700.48549
   -482007.56748   -375589.71341         0.00041         0.00041  25004745.13948
 97 06 19 16 55 00.0000000  0  6 04 05 07 09 24 30
  -3727227.02749  -2904330.78446         0.00041  20548645.79346  20548643.93849
    -75263.70348    -58646.02141         0.00041         0.00041  22040899.86348
   9204867.69448   7172622.22444         0.00041  22813202.47344  22813197.93648
  -1363206.97549  -1062240.79146         0.00041  21225952.10646  21225948.98649
 -12074701.27449  -9408855.10847         0.00041  20586881.70347  20586878.56049
   -578932.16347         0.00041         0.00041         0.00041  24986299.16147
 97 06 19 16 55 30.0000000  0  5 04 05 07 09 24
  -3706390.36949  -2888094.42646         0.00041  20552610.81846  20552608.84849
   -150411.98448   -117203.17741         0.00041         0.00041  22026601.36048
   9271612.52448   7224631.11945         0.00041  22825905.40945  22825900.83748
  -1341408.57249  -1045255.04246         0.00041  21230100.48746  21230097.44149
 -12120545.56949  -9444577.92347         0.00041  20578157.97047  20578154.88649
 97 06 19 16 56 00.0000000  0  6 04 05 07 09 16 24
  -3685056.47849  -2871470.62046         0.00041  20556670.31846  20556668.63749
   -225500.88248   -175714.01941         0.00041         0.00041  22012311.74248
   9338315.11848   7276607.07945         0.00041  22838597.17245  22838593.90148
  -1319104.46849  -1027875.24146         0.00041  21234344.54646  21234341.78249
        -0.63258         0.03454         0.00051  24606094.72054  24606092.44058
 -12165930.56949  -9479942.84247         0.00041  20569521.47547  20569518.53449
 97 06 19 16 56 30.0000000  0  7 02 04 05 07 09 16 24
        -0.57257        -0.11851         0.00051         0.00051  24265821.83557
  -3663157.02949  -2854406.12146         0.00041  20560837.96146  20560836.27949
   -300476.69548   -234136.70541         0.00041         0.00041  21998044.97148
   9405042.92748   7328602.71745         0.00041  22851294.76745  22851291.67548
  -1296251.24849  -1010067.56046         0.00041  21238693.45746  21238690.55849
      -883.94548      -688.25444         0.00041  24605929.66044  24605925.33048
 -12210802.10249  -9514907.65847         0.00041  20560982.63747  20560979.60349
 97 06 19 16 57 00.0000000  0  8 02 04 05 07 09 16 24 30
     87797.38547         0.00041         0.00041         0.00041  24282529.02047
  -3640663.28249  -2836878.53046         0.00041  20565118.44746  20565116.57249
   -375300.46848   -292440.99041         0.00041         0.00041  21983804.79448
   9471847.43948   7380658.16445         0.00041  22864008.50545  22864005.06548
  -1272825.24949   -991813.56346         0.00041  21243151.27646  21243147.99249
     -1253.83648      -976.41944         0.00041  24605861.06944  24605855.14148
 -12255141.00049  -9549457.43647         0.00041  20552545.40647  20552541.85049
        -0.88358        -0.56254         0.00051  24912329.79154  24912326.29858
 97 06 19 16 57 30.0000000  0  7 04 05 07 09 16 24 30
  -3617640.61549  -2818938.79146         0.00041  20569499.75346  20569497.98549
   -450040.50248         0.00041         0.00041         0.00041  21969584.02548
   9538656.71848   7432717.35445         0.00041  22876721.66345  22876718.15848
  -1248913.21949   -973180.84446         0.00041  21247701.40246  21247697.93349
     -1177.07148      -916.58944         0.00041  24605872.91044  24605870.59548
 -12299032.78549  -9583658.81347         0.00041  20544193.31347  20544189.57949
    -97357.90448    -75863.14344         0.00041  24893804.69844  24893798.75048
 97 06 19 16 58 00.0000000  0  8 02 04 05 07 09 16 24 30
         0.10557         0.00051         0.00051         0.00051  24316034.61457
  -3594104.15849  -2800598.69946         0.00041  20573978.36546  20573976.87249
   -524690.43247         0.00041         0.00041         0.00041  21955374.83847
   9605466.54248   7484776.94446         0.00041  22889435.71146  22889432.17148
  -1224545.34349   -954192.91946         0.00041  21252338.32946  21252335.14849
      -655.61748      -510.20045         0.00041  24605973.31945  24605969.33448
 -12342476.03349  -9617510.68247         0.00041  20535926.30147  20535922.77449
   -194797.41448   -151790.00544         0.00041  24875259.88244  24875256.71348
 97 06 19 16 58 30.0000000  0  8 02 04 05 07 09 16 24 30
     88311.34748         0.00041         0.00041         0.00041  24332839.63748
  -3570020.89149  -2781832.51946         0.00041  20578561.31046  20578559.59549
   -599192.02547         0.00041         0.00041         0.00041  21941199.64947
   9672308.04948   7536861.22746         0.00041  22902155.31346  22902152.20648
  -1199671.99149   -934811.11446         0.00041  21257071.48146  21257068.75749
       358.39848       279.99645         0.00041  24606165.76745  24606161.37648
 -12385434.38549  -9650984.71647         0.00041  20527751.72747  20527748.50249
   -292282.35848   -227752.24344         0.00041  24856709.05944  24856705.68048
 97 06 19 16 59 00.0000000  0  8 02 04 05 07 09 16 24 30
    176852.82548    137807.74841         0.00041         0.00041  24349690.32648
  -3545385.22749  -2762635.89246         0.00041  20583249.20346  20583247.32149
   -673520.71147         0.00041         0.00041         0.00041  21927053.47747
   9739178.76948   7588968.26946         0.00041  22914879.77746  22914876.90148
  -1174256.85249   -915007.13146         0.00041  21261907.62746  21261904.83749
      1879.45048      1465.22745         0.00041  24606454.65745  24606451.86848
 -12427894.90349  -9684070.82747         0.00041  20519671.65747  20519668.14649
   -389808.84848   -303746.84644         0.00041  24838151.64644  24838147.93848
 97 06 19 16 59 30.0000000  0  8 02 04 05 07 09 16 24 30
    265656.38148         0.00041         0.00041         0.00041  24366588.52548
  -3520183.17849  -2742997.92646         0.00041  20588044.86846  20588042.96249
   -747642.11347   -582577.33841         0.00041         0.00041  21912947.36547
   9806085.41748   7641103.28745         0.00041  22927610.99045  22927608.05048
  -1148267.62949   -894755.81446         0.00041  21266852.47546  21266850.49049
      3943.37548      3073.47545         0.00041  24606850.37045  24606843.22448
 -12469816.35949  -9716736.89547         0.00041  20511694.50247  20511690.21349
   -487373.66848   -379771.32044         0.00041  24819585.11644  24819582.01248
 97 06 19 17 00 00.0000000  0  7 04 05 07 09 16 24 30
  -3494426.74649  -2722927.97646         0.00041  20592946.46346  20592944.42949
   -821556.27748   -640172.79341         0.00041         0.00041  21898886.16548
   9873013.03948   7693254.64145         0.00041  22940347.47845  22940344.26348
  -1121702.19349   -874055.50146         0.00041  21271908.23746  21271905.88249
      6551.01248      5105.36744         0.00041  24607345.89444  24607338.43848
 -12511197.97249  -9748982.31147         0.00041  20503819.70447  20503815.51849
   -584981.95148   -455829.64644         0.00041  24801009.91744  24801007.54548
 97 06 19 17 00 30.0000000  0  7 04 05 07 09 16 24 30
  -3468128.04249  -2702435.48047         0.00041  20597951.01647  20597948.85949
   -895287.93448   -697625.99241         0.00041         0.00041  21884853.79448
   9939936.41748   7745402.69645         0.00041  22953082.74345  22953078.97948
  -1094567.84649   -852911.88146         0.00041  21277072.22246  21277069.34249
      9677.89148      7541.90144         0.00041  24607940.74844  24607935.30148
 -12552066.00249  -9780827.52047         0.00041  20496042.34947  20496038.92649
   -682648.55948   -531933.40144         0.00041  24782426.17644  24782423.08048
 97 06 19 17 01 00.0000000  0  8 02 04 05 07 09 16 24 30
        -0.30458         0.01954         0.00051  24417566.04754  24417559.46858
  -3441276.71349  -2681512.36847         0.00041  20603060.86447  20603058.64449
   -968825.93147   -754928.28841         0.00041         0.00041  21870859.93147
  10006879.55448   7797566.15845         0.00041  22965820.49145  22965817.44248
  -1066872.75649   -831331.31346         0.00041  21282342.56746  21282339.21549
     13320.47148     10380.30644         0.00041  24608631.89244  24608628.20148
 -12592401.02849  -9812257.39747         0.00041  20488366.60347  20488363.34249
   -780363.26748   -608074.57944         0.00041  24763829.61544  24763827.68948
 97 06 19 17 01 30.0000000  0  8 02 04 05 07 09 16 24 30
     89693.84448     69891.52941         0.00041         0.00041  24434628.25748
  -3413873.31149  -2660159.07147         0.00041  20608275.66147  20608273.22749
  -1042180.29547         0.00041         0.00041         0.00041  21856902.00747
  10073867.23348   7849764.32945         0.00041  22978567.72545  22978564.55248
  -1038655.80349   -809344.08546         0.00041  21287712.74246  21287708.69549
     17460.42048     13606.33544         0.00041  24609419.97844  24609415.62248
 -12632212.39649  -9843279.23746         0.00041  20480791.02046  20480787.45049
   -878120.57248   -684248.97444         0.00041  24745228.06544  24745225.30348
 97 06 19 17 02 00.0000000  0  6 04 07 09 16 24 30
  -3385918.10849  -2638375.80347         0.00041  20613595.29247  20613592.80249
  10140910.17648   7902005.57245         0.00041  22991326.04545  22991322.88748
  -1009940.92449   -786968.85646         0.00041  21293176.67546  21293172.81049
     22078.40848     17204.80144         0.00041  24610297.33144  24610294.35148
 -12671520.66949  -9873909.05946         0.00041  20473310.99946  20473307.16349
   -975914.34648   -760451.85844         0.00041  24726617.23044  24726615.48448
 97 06 19 17 02 30.0000000  0  6 04 07 09 16 24 30
  -3357438.22849  -2616183.69647         0.00041  20619014.80547  20619012.36449
  10207980.86748   7954268.43945         0.00041  23004090.24245  23004085.90848
   -980769.46549   -764237.85846         0.00041  21298728.22346  21298724.88749
     27157.68948     21162.58044         0.00041  24611261.02344  24611258.65648
 -12710360.07549  -9904173.52747         0.00041  20465919.98047  20465916.30349
  -1073776.93448   -836708.35244         0.00041  24707997.23444  24707992.84748
 97 06 19 17 03 00.0000000  0  7 04 07 09 10 16 24 30
  -3328423.06649  -2593574.48746         0.00041  20624536.41246  20624534.00949
  10275089.85248   8006561.16145         0.00041  23016861.09945  23016856.06748
   -951146.45749   -741155.02346         0.00041  21304364.36146  21304362.08049
        -0.65258         0.00051         0.00051         0.00051  25241761.08258
     32693.80948     25476.40544         0.00041  24612312.16244  24612312.53448
 -12748710.51549  -9934056.97847         0.00041  20458622.16847  20458618.95949
  -1171702.15348   -913013.66344         0.00041  24689361.63944  24689359.02148
 97 06 19 17 03 30.0000000  0  7 04 07 09 10 16 24 30
  -3298824.49749  -2570510.67546         0.00041  20630168.64146  20630166.34849
  10342271.52448   8058910.52845         0.00041  23029644.79345  23029639.81948
   -921001.46249   -717665.44746         0.00041  21310099.78646  21310097.97549
    -89691.32448         0.00041         0.00041         0.00041  25224691.74348
     38758.36548     30202.04744         0.00041  24613472.14044  24613466.16248
 -12786514.81049  -9963514.84947         0.00041  20451427.96847  20451425.11049
  -1269639.41048   -989328.35641         0.00041         0.00041  24670719.84048
 97 06 19 17 04 00.0000000  0  7 04 07 09 10 16 24 30
  -3268623.80049  -2546977.67346         0.00041  20635915.46446  20635912.98549
  10409520.39148   8111312.23045         0.00041  23042441.71145  23042438.55148
   -890280.83249   -693727.32646         0.00041  21315946.78046  21315943.70149
   -179503.36248   -139871.60944         0.00041  25207610.55744  25207602.71448
     45386.19848     35366.59944         0.00041  24614731.76944  24614725.33648
 -12823736.41049  -9992518.66047         0.00041  20444344.40747  20444341.70949
  -1367562.60748  -1065632.17041         0.00041         0.00041  24652083.33448
 97 06 19 17 04 30.0000000  0  7 04 07 09 10 16 24 30
  -3237812.90649  -2522969.19446         0.00041  20641778.58746  20641776.15749
  10476852.07348   8163778.48145         0.00041  23055255.54445  23055251.30748
   -858955.70949   -669318.16646         0.00041  21321907.56546  21321904.46749
   -269432.16948         0.00041         0.00041         0.00041  25190489.48148
     52595.37948     40984.18744         0.00041  24616100.04244  24616096.82948
 -12860353.75049 -10021051.62146         0.00041  20437376.18346  20437373.79049
  -1465454.79848  -1141911.76241         0.00041         0.00041  24633456.82248
 97 06 19 17 05 00.0000000  0  7 04 07 09 10 16 24 30
  -3206529.90349  -2498592.84046         0.00041  20647731.70146  20647729.20049
  10544157.00048   8216223.85245         0.00041  23068061.45445  23068059.25948
   -827134.87749   -644522.72746         0.00041  21327963.59446  21327960.16949
   -359600.80648   -280207.19144         0.00041  25173339.13444  25173330.94348
     60251.34548     46949.84641         0.00041         0.00041  24617554.58448
 -12896477.17949 -10049199.71647         0.00041  20430503.04947  20430499.86349
  -1563431.68948  -1218257.38544         0.00041  24614814.64644  24614813.32848
 97 06 19 17 05 30.0000000  0  7 04 07 09 10 16 24 30
  -3174502.64149  -2473636.54546         0.00041  20653825.93246  20653824.00549
  10611725.88248   8268874.89045         0.00041  23080921.12945  23080917.87548
   -794521.52849   -619109.74046         0.00041  21334170.06946  21334166.86149
   -449715.35748         0.00041         0.00041         0.00041  25156183.44148
     68623.65548     53473.74544         0.00041  24619152.54144  24619147.53048
 -12931828.49549 -10076746.18047         0.00041  20423776.07247  20423772.69449
  -1661193.64948         0.00041         0.00041         0.00041  24596210.11948
 97 06 19 17 06 00.0000000  0  7 04 07 09 10 16 24 30
  -3141840.39449  -2448185.45146         0.00041  20660041.23746  20660039.32249
  10679457.67648   8321652.86945         0.00041  23093807.47745  23093804.40748
   -761245.44149   -593180.34546         0.00041  21340502.08946  21340499.19249
   -539871.41248   -420677.55241         0.00041         0.00041  25139028.67548
     77604.80448     60472.09544         0.00041  24620861.79244  24620858.75348
 -12966519.15449 -10103777.85347         0.00041  20417174.69947  20417171.34749
  -1758844.57748         0.00041         0.00041         0.00041  24577627.66348
 97 06 19 17 06 30.0000000  0  7 04 07 09 10 16 24 30
  -3108551.23949  -2422245.85746         0.00041  20666375.81146  20666373.87949
  10747344.71248   8374551.81544         0.00041  23106727.37044  23106724.17348
   -727338.26549   -566759.19246         0.00041  21346954.15246  21346951.05449
   -630080.95948   -490970.63641         0.00041         0.00041  25121860.49848
     87176.37848     67930.44241         0.00041         0.00041  24622680.31848
 -13000567.07349 -10130308.68947         0.00041  20410695.54347  20410692.00349
  -1856402.26348         0.00041         0.00041         0.00041  24559061.10648
 97 06 19 17 07 00.0000000  0  7 04 07 09 10 16 24 30
  -3075157.57149  -2396224.82046         0.00041  20672730.05746  20672728.09849
  10814843.64248   8427148.34545         0.00041  23119571.03045  23119568.82548
   -693331.35349   -540260.32746         0.00041  21353425.65446  21353422.48649
   -720864.00048   -561710.60241         0.00041         0.00041  25104583.80048
     96821.35848     75446.02441         0.00041         0.00041  24624514.38648
 -13034494.69549 -10156745.78947         0.00041  20404239.15547  20404235.61049
  -1954400.00748         0.00041         0.00041         0.00041  24540412.33448
 97 06 19 17 07 30.0000000  0  6 04 07 09 10 24 30
  -3041680.46049  -2370138.76946         0.00041  20679100.94646  20679098.88549
  10881903.14948   8479402.47445         0.00041  23132331.39845  23132330.25948
   -659270.32649   -513719.29446         0.00041  21359906.72846  21359903.52049
   -812258.83148         0.00041         0.00041         0.00041  25087191.67748
 -13068351.08749 -10183127.38047         0.00041  20397796.55047  20397792.70349
  -2052883.20248         0.00041         0.00041         0.00041  24521673.45548
 97 06 19 17 08 00.0000000  0  7 04 07 09 10 16 24 30
  -3007767.29749  -2343712.93346         0.00041  20685554.04546  20685552.38149
  10948854.95048   8531572.65845         0.00041  23145072.52145  23145070.49648
   -624820.21449   -486875.07846         0.00041  21366462.35446  21366459.16449
   -903920.88047         0.00041         0.00041         0.00041  25069747.41647
        -0.38358         0.00051         0.00051         0.00051  24628283.96658
 -13101799.13749 -10209190.78047         0.00041  20391431.24347  20391427.57649
  -2151518.64048  -1676506.57641         0.00041         0.00041  24502904.36548
 97 06 19 17 08 30.0000000  0  6 04 07 09 16 24 30
  -2973260.75449  -2316824.71946         0.00041  20692120.65346  20692118.72349
  11015849.87748   8583776.42145         0.00041  23157823.68245  23157818.77448
   -589821.12649   -459603.09546         0.00041  21373122.78946  21373120.01849
     10674.73548         0.00041         0.00041         0.00041  24630316.47648
 -13134692.56049 -10234822.00447         0.00041  20385171.85747  20385168.41349
  -2250155.13448  -1753366.17541         0.00041         0.00041  24484134.36548
 97 06 19 17 09 00.0000000  0  5 04 07 09 24 30
  -2938069.25849  -2289402.77046         0.00041  20698817.30246  20698815.68349
  11082994.11648   8636096.43845         0.00041  23170601.40245  23170596.48148
   -554178.29649   -431829.49646         0.00041  21379904.98246  21379902.70149
 -13166926.43249 -10259939.29347         0.00041  20379038.05547  20379034.52749
  -2348681.60147         0.00041         0.00041         0.00041  24465381.27147
 97 06 19 17 09 30.0000000  0  6 04 07 09 16 24 30
  -2902171.86249  -2261430.76846         0.00041  20705648.52446  20705647.22849
  11150320.52748   8688558.42945         0.00041  23183412.68045  23183408.49148
   -517868.17049   -403535.92546         0.00041  21386814.81546  21386811.80849
        -1.01858         0.00051         0.00051         0.00051  24634762.26558
 -13198473.76649 -10284521.62347         0.00041  20373034.77147  20373031.45349
  -2447056.04147         0.00041         0.00041         0.00041  24446662.72247
 97 06 19 17 10 00.0000000  0  7 04 05 07 09 16 24 30
  -2865540.05049  -2232886.50046         0.00041  20712619.39746  20712617.85849
        -1.13357         0.00051         0.00051         0.00051  21624318.45357
  11217865.68048   8741191.01145         0.00041  23196264.49445  23196261.58048
   -480852.35449   -374692.45746         0.00041  21393858.84346  21393855.70849
     12732.82348         0.00041         0.00041         0.00041  24637186.66748
 -13229282.68149 -10308528.56347         0.00041  20367172.27747  20367168.91849
  -2545231.45947  -1983295.72141         0.00041         0.00041  24427978.94847
 97 06 19 17 10 30.0000000  0  7 04 05 07 09 16 24 30
  -2828294.15249  -2203863.72646         0.00041  20719707.96146  20719705.28949
    -70035.19348         0.00041         0.00041         0.00041  21610990.39148
  11285537.06748   8793921.94545         0.00041  23209142.57245  23209139.04848
   -443220.51349   -345368.95846         0.00041  21401019.91746  21401016.74149
     26088.33948         0.00041         0.00041         0.00041  24639728.95248
 -13259438.97749 -10332026.96447         0.00041  20361433.55047  20361430.07349
  -2643307.19748  -2059718.31844         0.00041  24409326.83344  24409318.14548
 97 06 19 17 11 00.0000000  0  8 04 05 07 09 10 16 24 30
  -2790487.42749  -2174403.93946         0.00041  20726902.63146  20726899.60849
   -139785.82548         0.00041         0.00041         0.00041  21597717.68148
  11353291.36148   8846717.46345         0.00041  23222034.99245  23222031.44648
   -405010.65549   -315595.06846         0.00041  21408291.14446  21408287.99349
        -0.44758         0.33051         0.00051         0.00051  24964882.54858
     40024.73848         0.00041         0.00041         0.00041  24642378.46948
 -13288979.06249 -10355045.21047         0.00041  20355812.32347  20355808.86449
  -2741331.54848  -2136100.90744         0.00041  24390670.11544  24390664.19748
 97 06 19 17 11 30.0000000  0  8 04 05 07 09 10 16 24 30
  -2752150.86349  -2144531.30146         0.00041  20734197.09746  20734194.95849
   -209271.94548         0.00041         0.00041         0.00041  21584496.27948
  11421093.91448   8899550.59545         0.00041  23234937.40045  23234934.15748
   -366247.04649   -285389.68146         0.00041  21415667.98346  21415664.97549
    -92096.61148    -71762.93041         0.00041         0.00041  24947358.40248
     54505.83548         0.00041         0.00041         0.00041  24645132.88048
 -13317946.78649 -10377617.45847         0.00041  20350300.01947  20350296.68349
  -2839354.86348  -2212482.61744         0.00041  24372017.51744  24372014.69948
 97 06 19 17 12 00.0000000  0  8 04 05 07 09 10 16 24 30
  -2713357.36049  -2114302.60746         0.00041  20741579.42746  20741577.09149
   -278575.75048         0.00041         0.00041         0.00041  21571307.66348
  11488887.19248   8952376.50545         0.00041  23247837.86145  23247834.66848
   -326999.84349   -254807.46946         0.00041  21423136.13346  21423133.05549
   -184358.99048         0.00041         0.00041         0.00041  24929801.17448
     69468.06048     54130.93944         0.00041  24647985.61544  24647981.14348
 -13346416.30849 -10399801.49647         0.00041  20344882.30747  20344879.13549
  -2937460.95548  -2288928.86144         0.00041  24353347.39644  24353343.73548
 97 06 19 17 12 30.0000000  0  8 04 05 07 09 10 16 24 30
  -2674095.22749  -2083708.74046         0.00041  20749050.68346  20749048.01249
   -347702.86047         0.00041         0.00041         0.00041  21558150.21647
  11556687.63548   9005207.99445         0.00041  23260742.16145  23260738.22848
   -287269.88849   -223849.09246         0.00041  21430696.50846  21430693.30949
   -276759.79548   -215656.36941         0.00041         0.00041  24912217.61548
     84919.42648     66170.92944         0.00041  24650927.60444  24650923.35348
 -13374385.14349 -10421595.38347         0.00041  20339559.73647  20339556.54149
  -3035629.83848  -2365424.07044         0.00041  24334665.98344  24334662.74348
 97 06 19 17 13 00.0000000  0  8 04 05 07 09 10 16 24 30
  -2634379.69449  -2052761.56046         0.00041  20756608.20746  20756605.93349
   -416684.70948         0.00041         0.00041         0.00041  21545025.67648
  11624459.83148   9058017.46945         0.00041  23273638.34645  23273634.32848
   -247111.69649   -192557.01946         0.00041  21438338.32546  21438335.01249
   -369330.98948   -287789.77141         0.00041         0.00041  24894602.90748
    100804.59348     78548.99744         0.00041  24653950.04744  24653947.45748
 -13401893.89749 -10443030.76347         0.00041  20334325.37847  20334322.23849
  -3133884.63348  -2441986.20544         0.00041  24315965.63144  24315964.69348
 97 06 19 17 13 30.0000000  0  8 04 05 07 09 10 16 24 30
  -2594211.38449  -2021461.57746         0.00041  20764251.96946  20764249.86249
   -485516.82648         0.00041         0.00041         0.00041  21531927.55348
  11692209.47048   9110809.36344         0.00041  23286528.93344  23286525.52648
   -206532.56849   -160936.93646         0.00041  21446060.25746  21446056.70549
   -462078.89848         0.00041         0.00041         0.00041  24876953.50548
    117123.96548     91265.36544         0.00041  24657053.84244  24657051.24948
 -13428941.66549 -10464106.93347         0.00041  20329178.21147  20329175.33149
  -3232198.55448  -2518594.35544         0.00041  24297260.07344  24297258.22448
 97 06 19 17 14 00.0000000  0  8 04 05 07 09 10 16 24 30
  -2553534.31749  -1989765.16246         0.00041  20771992.97946  20771990.44749
   -554148.39048         0.00041         0.00041         0.00041  21518868.78848
  11759985.06848   9163621.45544         0.00041  23299426.92244  23299424.14348
   -165479.31149   -128947.41146         0.00041  21453872.81746  21453869.54749
   -554958.17348         0.00041         0.00041         0.00041  24859277.75448
    133944.32948    104372.19041         0.00041         0.00041  24660251.08648
 -13455468.76149 -10484777.38747         0.00041  20324130.15147  20324127.16849
  -3330485.38348  -2595181.45344         0.00041  24278556.34944  24278553.06948
 97 06 19 17 14 30.0000000  0  8 04 05 07 09 10 16 24 30
  -2512305.23949  -1957638.60846         0.00041  20779838.75446  20779836.01549
   -622527.98648         0.00041         0.00041         0.00041  21505854.53348
  11827833.43348   9216490.28444         0.00041  23312338.39144  23312335.01948
   -123910.46149    -96556.12746         0.00041  21461783.42746  21461780.53549
   -647930.22848         0.00041         0.00041         0.00041  24841586.03148
    151311.73848         0.00041         0.00041         0.00041  24663557.17848
 -13481427.44449 -10505004.92347         0.00041  20319190.17947  20319187.01349
  -3428685.88748  -2671701.29044         0.00041  24259870.54144  24259866.16148
 97 06 19 17 15 00.0000000  0  8 04 05 07 09 10 16 24 30
  -2470488.74449  -1925054.33346         0.00041  20787796.14046  20787793.06949
   -690610.48748         0.00041         0.00041         0.00041  21492897.17448
  11895793.67748   9269446.32144         0.00041  23325270.51844  23325264.97048
    -81768.56349    -63718.30846         0.00041  21469802.51246  21469799.58249
   -740956.31348         0.00041         0.00041         0.00041  24823883.65648
    169261.54048         0.00041         0.00041         0.00041  24666972.26848
 -13506781.85649 -10524761.59747         0.00041  20314365.48247  20314362.11749
  -3526774.35448  -2748133.77344         0.00041  24241202.76844  24241200.41048
 97 06 19 17 15 30.0000000  0  7 04 07 09 10 16 24 30
  -2428144.81749  -1892059.07446         0.00041  20795853.75246  20795850.66649
  11963811.00948   9322446.82645         0.00041  23338213.53145  23338209.62648
    -39094.73849    -30465.99646         0.00041  21477922.98546  21477919.87249
   -834079.96348   -649931.75141         0.00041         0.00041  24806162.34148
    187757.23348         0.00041         0.00041         0.00041  24670492.29548
 -13531585.99649 -10544089.48847         0.00041  20309645.61447  20309642.10049
  -3624801.12548  -2824518.17844         0.00041  24222551.72644  24222548.04848
 97 06 19 17 16 00.0000000  0  7 04 07 09 10 16 24 30
  -2385295.84649  -1858670.27246         0.00041  20804007.26546  20804004.61249
  12031867.50848   9375477.82745         0.00041  23351166.05045  23351162.35948
      4094.12849      3187.64246         0.00041  21486141.56546  21486138.46049
   -927314.59648   -722582.04444         0.00041  24788429.44744  24788421.00748
    206767.67648         0.00041         0.00041         0.00041  24674109.46248
 -13555856.24749 -10563001.36347         0.00041  20305027.15347  20305023.83749
  -3722804.53148  -2900884.43645         0.00041  24203901.91045  24203898.87248
 97 06 19 17 16 30.0000000  0  7 04 07 09 10 16 24 30
  -2341943.66349  -1824889.35746         0.00041  20812256.94046  20812254.81649
  12099975.73048   9428549.11045         0.00041  23364124.40945  23364122.83548
     47796.96949     37241.78546         0.00041  21494457.99946  21494454.67749
  -1020652.78748   -795313.04944         0.00041  24770668.03144  24770659.09548
    226287.64148    176328.05241         0.00041         0.00041  24677823.83448
 -13579576.77749 -10581484.88647         0.00041  20300513.53047  20300510.11749
  -3820797.98248  -2977242.93044         0.00041  24185254.77844  24185249.83548
 97 06 19 17 17 00.0000000  0  7 04 07 09 10 16 24 30
  -2297998.75649  -1790646.58646         0.00041  20820619.34646  20820617.21849
  12168203.37648   9481713.44644         0.00041  23377107.79744  23377105.93448
     92096.47649     71760.87146         0.00041  21502888.05046  21502883.98049
  -1114010.56748         0.00041         0.00041         0.00041  24752895.09248
    246403.82648    192003.01341         0.00041         0.00041  24681652.50848
 -13602662.63849 -10599473.87047         0.00041  20296120.37547  20296117.03949
  -3918691.75648  -3053523.77744         0.00041  24166625.42044  24166621.48648
 97 06 19 17 17 30.0000000  0  7 04 07 09 10 16 24 30
  -2253390.16049  -1755886.64446         0.00041  20829108.24646  20829106.26549
  12236631.92848   9535034.37144         0.00041  23390128.65944  23390126.76148
    137056.61249    106794.74446         0.00041  21511443.85246  21511439.11449
  -1207313.56648   -940762.94544         0.00041  24735146.16344  24735138.69348
    267204.99748    208211.61841         0.00041         0.00041  24685609.72148
 -13625018.53549 -10616894.04747         0.00041  20291866.09147  20291862.45649
  -4016408.05948  -3129666.29844         0.00041  24148032.42944  24148029.77948
 97 06 19 17 18 00.0000000  0  7 04 07 09 10 16 24 30
  -2208380.16349  -1720813.92446         0.00041  20837673.18546  20837671.22749
  12305010.56548   9588316.35344         0.00041  23403141.58644  23403138.85048
    182414.24549    142138.35746         0.00041  21520075.23046  21520071.07149
  -1300814.54848  -1013620.88644         0.00041  24717355.16144  24717346.47348
    288438.27048    224757.06344         0.00041  24689656.07444  24689651.24748
 -13646887.55749 -10633934.83947         0.00041  20287704.30547  20287700.91349
  -4114212.54248  -3205877.53644         0.00041  24129419.24544  24129414.29248
 97 06 19 17 18 30.0000000  0  7 04 07 09 10 16 24 30
  -2163035.98549  -1685480.80746         0.00041  20846302.04046  20846300.04749
  12373258.19748   9641496.28144         0.00041  23416126.57144  23416126.09848
    228084.42049    177725.49746         0.00041  21528765.38546  21528762.29749
  -1394581.33548  -1086685.88544         0.00041  24699510.72344  24699505.49248
    310044.76048    241593.33544         0.00041  24693765.76644  24693762.45048
 -13668346.25149 -10650655.89147         0.00041  20283620.89047  20283617.67149
  -4212178.29248  -3282214.45744         0.00041  24110774.82144  24110772.11148
 97 06 19 17 19 00.0000000  0  7 04 07 09 10 16 24 30
  -2117364.33149  -1649892.51746         0.00041  20854993.05746  20854990.81149
  12441357.75448   9694560.81945         0.00041  23429087.44545  23429085.05048
    274057.00749    213548.27546         0.00041  21537513.89446  21537511.08749
  -1488619.69248  -1159962.49144         0.00041  24681614.66544  24681610.13248
    332007.47548    258707.14244         0.00041  24697948.40244  24697942.06948
 -13689425.47849 -10667081.25247         0.00041  20279609.72847  20279606.63549
  -4310325.21648  -3358692.58944         0.00041  24092098.66544  24092095.57548
 97 06 19 17 19 30.0000000  0  7 04 07 09 10 16 24 30
  -2070749.76649  -1613569.49046         0.00041  20863863.49046  20863861.27849
  12509934.06948   9747996.85145         0.00041  23442140.90945  23442135.47548
    320951.41849    250089.34346         0.00041  21546437.57446  21546434.18449
  -1582298.91448  -1232959.29341         0.00041         0.00041  24663780.53848
    354938.95548    276575.80844         0.00041  24702312.21944  24702307.14248
 -13709509.86949 -10682731.41047         0.00041  20275787.80047  20275784.68649
  -4408045.47948  -3434838.22044         0.00041  24073504.07744  24073499.81448
 97 06 19 17 20 00.0000000  0  7 04 07 09 10 16 24 30
  -2022857.48849  -1576250.84146         0.00041  20872977.05546  20872975.19649
  12579306.32548   9802053.13645         0.00041  23455340.55845  23455336.39648
    369088.01949    287598.34246         0.00041  21555597.60646  21555594.41249
  -1675288.52448  -1305418.73844         0.00041  24646092.90544  24646085.98748
    379150.44648    295441.87944         0.00041  24706919.24944  24706914.30448
 -13728295.47849 -10697369.53847         0.00041  20272212.98347  20272209.76149
  -4504998.08048  -3510385.78844         0.00041  24055053.70344  24055050.13248
 97 06 19 17 20 30.0000000  0  5 04 09 16 24 30
  -1972608.31749  -1537095.64246         0.00041  20882539.32846  20882537.39849
    419547.93449    326917.70546         0.00041  21565199.99346  21565196.93349
    405700.67948         0.00041         0.00041         0.00041  24711966.77848
 -13744724.77149 -10710171.58447         0.00041  20269086.87347  20269083.49349
  -4600088.93848  -3584482.50044         0.00041  24036960.69144  24036958.88448
 97 06 19 17 21 00.0000000  0  5 04 09 16 24 30
  -1920497.78949  -1496490.05546         0.00041  20892455.97146  20892453.63249
    471855.15349    367676.54646         0.00041  21575153.72446  21575150.67449
    434099.09648         0.00041         0.00041         0.00041  24717370.88848
 -13759271.91649 -10721507.01447         0.00041  20266318.51947  20266315.18849
  -4693784.17248  -3657491.71944         0.00041  24019129.80644  24019126.70048
 97 06 19 17 21 30.0000000  0  5 04 09 16 24 30
  -1867645.64149  -1455306.57746         0.00041  20902513.44946  20902510.75149
    524908.82049    409017.03746         0.00041  21585249.55246  21585246.21149
    463258.66148         0.00041         0.00041         0.00041  24722916.71548
 -13773007.52549 -10732210.08347         0.00041  20263704.79347  20263701.59049
  -4787156.34848  -3730249.24841         0.00041         0.00041  24001357.26348
 97 06 19 17 22 00.0000000  0  5 04 09 16 24 30
  -1814563.22849  -1413943.66446         0.00041  20912614.81946  20912611.87649
    578199.18549    450541.97646         0.00041  21595390.45546  21595387.16649
    492678.57348         0.00041         0.00041         0.00041  24728514.76548
 -13786424.03749 -10742664.50747         0.00041  20261151.60247  20261148.38649
  -4880701.13748         0.00041         0.00041         0.00041  23983556.61248
 97 06 19 17 22 30.0000000  0  7 04 07 09 10 16 24 30
  -1761130.32949  -1372307.65046         0.00041  20922783.04846  20922780.21849
         0.22858         0.48654         0.00051  23524202.07354  23524197.18358
    631857.19949    492353.39646         0.00041  21605600.45046  21605597.58049
        -0.03358         0.13354         0.00051  24560208.53954  24560203.68658
    522508.33348         0.00041         0.00041         0.00041  24734192.42048
 -13799379.18749 -10752759.42547         0.00041  20258686.54647  20258683.35249
  -4974296.31348  -3876072.52241         0.00041         0.00041  23965746.03948
 97 06 19 17 23 00.0000000  0  7 04 07 09 10 16 24 30
  -1707411.71949  -1330449.00446         0.00041  20933004.93646  20933002.55949
     72353.65848     56379.72644         0.00041  23537970.08644  23537967.84648
    685808.16249    534393.07446         0.00041  21615866.90446  21615864.62049
    -90561.87848    -70567.50744         0.00041  24542978.03544  24542973.73748
    552716.85948         0.00041         0.00041         0.00041  24739938.06348
 -13811925.40149 -10762535.68947         0.00041  20256298.90947  20256295.74349
  -5068021.40148         0.00041         0.00041         0.00041  23947911.17048
